UAL843 YSSY-KLAX

Flight info

Callsign UAL843
Flight time 12h 51m
Altitude 35000
Route NOBAR B580 IFFEY DCT 2940S15727E 2657S16142E 2617S16300E 2359S16710E 2200S17010E 1925S17344E 1533S17814E 1159S17824W/N0495F370 0915S17603W 0521S17246W 0500S17226W 0325S17058W 0023N16659W 0417N16253W 0715N15931W 0857N15726W/N0486F390 1202N15316W 1507N14921W 1705N14651W 2018N14212W 2256N13748W 2510N13346W 2814N12824W/N0482F410 3046N12406W DCT FOOTS DCT FICKY DCT ROSIN DCT SXC LEENA8
Aircraft B789/H-SDE1E2E3FGHIJ2J3J4J5M1RWXY/LB1D1

Departure

Time 2026-04-26 02:00
Airport Sydney Kingsford Smith International Airport (YSSY)

Arrival

Time 2026-04-26 14:51
Airport Los Angeles International Airport (KLAX)
Time Latitude Longitude Altitude Speed Heading
2026-04-26 01:31 -33.93888 151.16650 26 ft 0 kts 257°
2026-04-26 01:45 -33.93887 151.16651 26 ft 1 kts 257°
2026-04-26 01:45 -33.93880 151.16678 32 ft 4 kts 248°
2026-04-26 01:45 -33.93871 151.16708 32 ft 4 kts 240°
2026-04-26 01:45 -33.93854 151.16732 32 ft 4 kts 206°
2026-04-26 01:46 -33.93829 151.16738 32 ft 3 kts 167°
2026-04-26 01:46 -33.93825 151.16737 31 ft 10 kts 164°
2026-04-26 01:50 -33.93827 151.16737 31 ft 2 kts 164°
2026-04-26 01:50 -33.93874 151.16753 32 ft 13 kts 165°
2026-04-26 01:50 -33.93972 151.16784 29 ft 14 kts 165°
2026-04-26 01:50 -33.94051 151.16841 30 ft 10 kts 108°
2026-04-26 01:51 -33.94039 151.16934 31 ft 16 kts 73°
2026-04-26 01:51 -33.94008 151.17069 28 ft 17 kts 74°
2026-04-26 01:51 -33.93988 151.17208 28 ft 13 kts 113°
2026-04-26 01:51 -33.94035 151.17238 30 ft 11 kts 166°
2026-04-26 01:52 -33.94140 151.17267 27 ft 20 kts 167°
2026-04-26 01:52 -33.94302 151.17310 29 ft 25 kts 168°
2026-04-26 01:52 -33.94463 151.17351 32 ft 22 kts 168°
2026-04-26 01:52 -33.94610 151.17390 31 ft 21 kts 167°
2026-04-26 01:53 -33.94750 151.17426 29 ft 21 kts 168°
2026-04-26 01:53 -33.94896 151.17463 27 ft 22 kts 167°
2026-04-26 01:53 -33.95036 151.17501 30 ft 20 kts 168°
2026-04-26 01:53 -33.95172 151.17534 26 ft 21 kts 169°
2026-04-26 01:54 -33.95321 151.17573 26 ft 21 kts 167°
2026-04-26 01:54 -33.95457 151.17611 28 ft 19 kts 167°
2026-04-26 01:54 -33.95577 151.17638 27 ft 16 kts 167°
2026-04-26 01:54 -33.95678 151.17666 29 ft 13 kts 167°
2026-04-26 01:55 -33.95763 151.17689 29 ft 13 kts 168°
2026-04-26 01:55 -33.95861 151.17714 27 ft 16 kts 168°
2026-04-26 01:55 -33.95973 151.17743 28 ft 17 kts 168°
2026-04-26 01:55 -33.96085 151.17771 29 ft 17 kts 168°
2026-04-26 01:56 -33.96204 151.17801 28 ft 19 kts 167°
2026-04-26 01:56 -33.96335 151.17837 28 ft 20 kts 167°
2026-04-26 01:56 -33.96435 151.17909 29 ft 13 kts 101°
2026-04-26 01:56 -33.96436 151.17924 29 ft 1 kts 95°
2026-04-26 01:57 -33.96436 151.17925 29 ft 0 kts 92°
2026-04-26 01:57 -33.96436 151.17928 29 ft 1 kts 92°
2026-04-26 01:58 -33.96436 151.17930 29 ft 3 kts 92°
2026-04-26 01:59 -33.96420 151.18022 29 ft 14 kts 52°
2026-04-26 01:59 -33.96357 151.18046 29 ft 8 kts 353°
2026-04-26 01:59 -33.96340 151.18042 29 ft 0 kts 348°
2026-04-26 01:59 -33.96249 151.18020 28 ft 40 kts 348°
2026-04-26 02:00 -33.95776 151.17898 27 ft 97 kts 348°
2026-04-26 02:00 -33.94942 151.17679 27 ft 147 kts 347°
2026-04-26 02:00 -33.93792 151.17390 39 ft 188 kts 349°
2026-04-26 02:00 -33.92529 151.17059 707 ft 178 kts 348°
2026-04-26 02:01 -33.91379 151.16739 1077 ft 167 kts 346°
2026-04-26 02:01 -33.90136 151.16402 1170 ft 195 kts 349°
2026-04-26 02:01 -33.88806 151.16060 1735 ft 201 kts 342°
2026-04-26 02:01 -33.87576 151.14971 1559 ft 246 kts 309°
2026-04-26 02:02 -33.86522 151.13317 2390 ft 248 kts 311°
2026-04-26 02:02 -33.85383 151.11733 3201 ft 253 kts 315°
2026-04-26 02:02 -33.84177 151.10171 4021 ft 257 kts 314°
2026-04-26 02:02 -33.82964 151.08576 4852 ft 260 kts 314°
2026-04-26 02:03 -33.81739 151.06932 5618 ft 266 kts 313°
2026-04-26 02:03 -33.80486 151.05254 6339 ft 273 kts 313°
2026-04-26 02:03 -33.79195 151.03534 7047 ft 280 kts 313°
2026-04-26 02:03 -33.77902 151.01813 7782 ft 282 kts 313°
2026-04-26 02:04 -33.76561 151.00028 8525 ft 286 kts 313°
2026-04-26 02:04 -33.75217 150.98243 9282 ft 290 kts 314°
2026-04-26 02:04 -33.73550 150.96939 9963 ft 288 kts 349°
2026-04-26 02:04 -33.71535 150.96915 10333 ft 301 kts 19°
2026-04-26 02:05 -33.69650 150.98082 10497 ft 321 kts 43°
2026-04-26 02:05 -33.68304 151.00289 10737 ft 336 kts 71°
2026-04-26 02:05 -33.67948 151.03041 11455 ft 337 kts 95°
2026-04-26 02:05 -33.68296 151.05845 12046 ft 343 kts 102°
2026-04-26 02:06 -33.68850 151.08645 12730 ft 346 kts 104°
2026-04-26 02:06 -33.69399 151.11483 13407 ft 351 kts 101°
2026-04-26 02:06 -33.69814 151.14385 14069 ft 355 kts 98°
2026-04-26 02:06 -33.70205 151.17326 14694 ft 358 kts 99°
2026-04-26 02:07 -33.70651 151.20273 15319 ft 360 kts 101°
2026-04-26 02:07 -33.71122 151.23249 15938 ft 363 kts 100°
2026-04-26 02:07 -33.71572 151.26242 16552 ft 366 kts 99°
2026-04-26 02:07 -33.72016 151.29262 17141 ft 369 kts 99°
2026-04-26 02:08 -33.72471 151.32314 17723 ft 372 kts 100°
2026-04-26 02:08 -33.72933 151.35384 18286 ft 375 kts 100°
2026-04-26 02:08 -33.73396 151.38486 18816 ft 378 kts 100°
2026-04-26 02:08 -33.73860 151.41614 19304 ft 381 kts 99°
2026-04-26 02:09 -33.74327 151.44759 19790 ft 384 kts 99°
2026-04-26 02:09 -33.74798 151.47935 20260 ft 386 kts 99°
2026-04-26 02:09 -33.75270 151.51122 20728 ft 389 kts 99°
2026-04-26 02:09 -33.75745 151.54334 21196 ft 391 kts 99°
2026-04-26 02:10 -33.76221 151.57568 21655 ft 394 kts 99°
2026-04-26 02:10 -33.76693 151.60772 22083 ft 396 kts 99°
2026-04-26 02:10 -33.77173 151.64040 22535 ft 399 kts 99°
2026-04-26 02:10 -33.77653 151.67317 22961 ft 401 kts 99°
2026-04-26 02:11 -33.77949 151.70651 23363 ft 402 kts 86°
2026-04-26 02:11 -33.77536 151.73959 23769 ft 404 kts 72°
2026-04-26 02:11 -33.76418 151.77072 24095 ft 407 kts 58°
2026-04-26 02:11 -33.74731 151.79816 24382 ft 411 kts 52°
2026-04-26 02:12 -33.72932 151.82500 24704 ft 413 kts 51°
2026-04-26 02:12 -33.71104 151.85171 25020 ft 415 kts 51°
2026-04-26 02:12 -33.69273 151.87868 25328 ft 417 kts 52°
2026-04-26 02:12 -33.67444 151.90591 25640 ft 419 kts 52°
2026-04-26 02:13 -33.65599 151.93327 25945 ft 422 kts 51°
2026-04-26 02:13 -33.63739 151.96068 26223 ft 424 kts 51°
2026-04-26 02:13 -33.61896 151.98784 26525 ft 426 kts 51°
2026-04-26 02:13 -33.60021 152.01551 26813 ft 428 kts 51°
2026-04-26 02:14 -33.58113 152.04366 27104 ft 431 kts 51°
2026-04-26 02:14 -33.56240 152.07125 27382 ft 433 kts 51°
2026-04-26 02:14 -33.54334 152.09927 27657 ft 435 kts 51°
2026-04-26 02:14 -33.52419 152.12744 27935 ft 437 kts 51°
2026-04-26 02:15 -33.50491 152.15578 28198 ft 439 kts 51°
2026-04-26 02:15 -33.48559 152.18415 28470 ft 441 kts 51°
2026-04-26 02:15 -33.46615 152.21266 28727 ft 442 kts 51°
2026-04-26 02:15 -33.44661 152.24130 28995 ft 444 kts 51°
2026-04-26 02:16 -33.42701 152.27001 29248 ft 446 kts 51°
2026-04-26 02:16 -33.40733 152.29881 29492 ft 448 kts 52°
2026-04-26 02:16 -33.38752 152.32780 29743 ft 450 kts 51°
2026-04-26 02:16 -33.36763 152.35685 29957 ft 452 kts 52°
2026-04-26 02:17 -33.34763 152.38606 30201 ft 454 kts 52°
2026-04-26 02:17 -33.32758 152.41531 30417 ft 456 kts 52°
2026-04-26 02:17 -33.30767 152.44434 30603 ft 458 kts 52°
2026-04-26 02:17 -33.28741 152.47383 30794 ft 459 kts 52°
2026-04-26 02:18 -33.26711 152.50339 30984 ft 461 kts 52°
2026-04-26 02:18 -33.24669 152.53308 31173 ft 463 kts 52°
2026-04-26 02:18 -33.22618 152.56288 31354 ft 464 kts 52°
2026-04-26 02:18 -33.20563 152.59272 31537 ft 466 kts 52°
2026-04-26 02:19 -33.18638 152.62065 31687 ft 467 kts 52°
2026-04-26 02:19 -33.16568 152.65065 31873 ft 469 kts 52°
2026-04-26 02:19 -33.14491 152.68073 32052 ft 470 kts 52°
2026-04-26 02:19 -33.12403 152.71096 32206 ft 472 kts 52°
2026-04-26 02:20 -33.10313 152.74118 32369 ft 474 kts 52°
2026-04-26 02:20 -33.08215 152.77149 32541 ft 475 kts 52°
2026-04-26 02:20 -33.06130 152.80159 32690 ft 476 kts 52°
2026-04-26 02:20 -33.04017 152.83206 32853 ft 478 kts 52°
2026-04-26 02:21 -33.01896 152.86263 32993 ft 479 kts 52°
2026-04-26 02:21 -32.99767 152.89329 33144 ft 481 kts 52°
2026-04-26 02:21 -32.97631 152.92402 33292 ft 482 kts 52°
2026-04-26 02:21 -32.95488 152.95483 33435 ft 484 kts 52°
2026-04-26 02:22 -32.93334 152.98577 33569 ft 485 kts 52°
2026-04-26 02:22 -32.91175 153.01675 33705 ft 486 kts 52°
2026-04-26 02:22 -32.89010 153.04780 33835 ft 488 kts 52°
2026-04-26 02:22 -32.86839 153.07891 33957 ft 489 kts 52°
2026-04-26 02:23 -32.84661 153.11009 34094 ft 491 kts 52°
2026-04-26 02:23 -32.82475 153.14135 34204 ft 492 kts 52°
2026-04-26 02:23 -32.80280 153.17273 34328 ft 493 kts 52°
2026-04-26 02:23 -32.78086 153.20404 34469 ft 493 kts 52°
2026-04-26 02:24 -32.75919 153.23497 34623 ft 493 kts 52°
2026-04-26 02:24 -32.73721 153.26630 34783 ft 493 kts 52°
2026-04-26 02:24 -32.71524 153.29759 34925 ft 493 kts 52°
2026-04-26 02:24 -32.69329 153.32883 35087 ft 493 kts 52°
2026-04-26 02:25 -32.67129 153.36011 35241 ft 492 kts 52°
2026-04-26 02:25 -32.62721 153.42271 35271 ft 495 kts 52°
2026-04-26 02:26 -32.59060 153.47460 35266 ft 492 kts 52°
2026-04-26 02:26 -32.54675 153.53670 35270 ft 491 kts 52°
2026-04-26 02:27 -32.49567 153.60888 35270 ft 491 kts 52°
2026-04-26 02:27 -32.45179 153.67078 35270 ft 490 kts 52°
2026-04-26 02:28 -32.41502 153.72258 35268 ft 491 kts 52°
2026-04-26 02:28 -32.37130 153.78405 35272 ft 491 kts 52°
2026-04-26 02:29 -32.32731 153.84582 35275 ft 491 kts 52°
2026-04-26 02:29 -32.28324 153.90759 35279 ft 490 kts 52°
2026-04-26 02:30 -32.23917 153.96926 35279 ft 490 kts 52°
2026-04-26 02:30 -32.19505 154.03090 35283 ft 491 kts 52°
2026-04-26 02:31 -32.15113 154.09215 35285 ft 491 kts 52°
2026-04-26 02:31 -32.10696 154.15366 35282 ft 492 kts 52°
2026-04-26 02:32 -32.06270 154.21520 35284 ft 491 kts 52°
2026-04-26 02:32 -32.01842 154.27665 35285 ft 491 kts 52°
2026-04-26 02:33 -31.97415 154.33799 35285 ft 492 kts 52°
2026-04-26 02:33 -31.92995 154.39952 35280 ft 492 kts 53°
2026-04-26 02:34 -31.88633 154.46100 35284 ft 492 kts 52°
2026-04-26 02:34 -31.84219 154.52255 35284 ft 492 kts 52°
2026-04-26 02:35 -31.79807 154.58431 35283 ft 493 kts 52°
2026-04-26 02:35 -31.75379 154.64600 35279 ft 493 kts 52°
2026-04-26 02:36 -31.70957 154.70761 35276 ft 493 kts 52°
2026-04-26 02:36 -31.66531 154.76912 35275 ft 493 kts 52°
2026-04-26 02:37 -31.62130 154.83021 35278 ft 493 kts 52°
2026-04-26 02:37 -31.57699 154.89161 35266 ft 493 kts 52°
2026-04-26 02:38 -31.53265 154.95295 35269 ft 493 kts 52°
2026-04-26 02:38 -31.48828 155.01424 35270 ft 493 kts 52°
2026-04-26 02:39 -31.44387 155.07548 35271 ft 493 kts 52°
2026-04-26 02:39 -31.39950 155.13657 35277 ft 492 kts 52°
2026-04-26 02:40 -31.35506 155.19766 35269 ft 492 kts 52°
2026-04-26 02:40 -31.31064 155.25862 35271 ft 493 kts 52°
2026-04-26 02:41 -31.26646 155.31916 35264 ft 492 kts 51°
2026-04-26 02:41 -31.22184 155.38020 35267 ft 493 kts 51°
2026-04-26 02:42 -31.17728 155.44107 35261 ft 493 kts 51°
2026-04-26 02:42 -31.13270 155.50185 35264 ft 493 kts 51°
2026-04-26 02:43 -31.06598 155.59267 35258 ft 493 kts 51°
2026-04-26 02:43 -31.02134 155.65331 35258 ft 493 kts 51°
2026-04-26 02:44 -30.97662 155.71395 35256 ft 493 kts 51°
2026-04-26 02:44 -30.93189 155.77453 35252 ft 493 kts 51°
2026-04-26 02:45 -30.88711 155.83508 35254 ft 493 kts 51°
2026-04-26 02:45 -30.84229 155.89557 35252 ft 493 kts 51°
2026-04-26 02:46 -30.79739 155.95609 35253 ft 494 kts 51°
2026-04-26 02:46 -30.75243 156.01658 35248 ft 494 kts 50°
2026-04-26 02:47 -30.70777 156.07660 35248 ft 494 kts 50°
2026-04-26 02:47 -30.66272 156.13702 35249 ft 494 kts 50°
2026-04-26 02:48 -30.61771 156.19732 35248 ft 494 kts 50°
2026-04-26 02:48 -30.57262 156.25761 35238 ft 494 kts 50°
2026-04-26 02:49 -30.52752 156.31786 35241 ft 494 kts 50°
2026-04-26 02:49 -30.48241 156.37798 35239 ft 493 kts 49°
2026-04-26 02:50 -30.43759 156.43766 35237 ft 493 kts 49°
2026-04-26 02:50 -30.39244 156.49766 35237 ft 493 kts 49°
2026-04-26 02:51 -30.34729 156.55759 35235 ft 493 kts 49°
2026-04-26 02:51 -30.30214 156.61741 35233 ft 494 kts 49°
2026-04-26 02:52 -30.25688 156.67729 35231 ft 493 kts 49°
2026-04-26 02:52 -30.21193 156.73668 35222 ft 493 kts 48°
2026-04-26 02:53 -30.16670 156.79634 35223 ft 493 kts 48°
2026-04-26 02:53 -30.12161 156.85573 35220 ft 491 kts 48°
2026-04-26 02:54 -30.07652 156.91502 35215 ft 491 kts 48°
2026-04-26 02:54 -30.03141 156.97426 35211 ft 491 kts 47°
2026-04-26 02:55 -29.98624 157.03349 35211 ft 492 kts 47°
2026-04-26 02:55 -29.94104 157.09265 35213 ft 492 kts 47°
2026-04-26 02:56 -29.89574 157.15187 35213 ft 492 kts 47°
2026-04-26 02:56 -29.85038 157.21109 35212 ft 492 kts 47°
2026-04-26 02:57 -29.80503 157.27018 35213 ft 492 kts 47°
2026-04-26 02:57 -29.75971 157.32918 35209 ft 491 kts 46°
2026-04-26 02:58 -29.71477 157.38757 35204 ft 489 kts 46°
2026-04-26 02:58 -29.66961 157.44631 35204 ft 490 kts 49°
2026-04-26 02:59 -29.62999 157.51030 35201 ft 492 kts 53°
2026-04-26 02:59 -29.59075 157.57480 35206 ft 492 kts 53°
2026-04-26 03:00 -29.55144 157.63922 35204 ft 492 kts 53°
2026-04-26 03:00 -29.51215 157.70357 35202 ft 492 kts 53°
2026-04-26 03:01 -29.47289 157.76773 35204 ft 491 kts 53°
2026-04-26 03:01 -29.43385 157.83147 35196 ft 490 kts 52°
2026-04-26 03:02 -29.39463 157.89537 35192 ft 489 kts 52°
2026-04-26 03:02 -29.35536 157.95928 35193 ft 489 kts 52°
2026-04-26 03:03 -29.31611 158.02304 35187 ft 488 kts 52°
2026-04-26 03:03 -29.27698 158.08653 35183 ft 487 kts 52°
2026-04-26 03:04 -29.23806 158.14955 35184 ft 487 kts 52°
2026-04-26 03:04 -29.19886 158.21296 35181 ft 487 kts 52°
2026-04-26 03:05 -29.15973 158.27613 35176 ft 486 kts 52°
2026-04-26 03:05 -29.12053 158.33933 35176 ft 486 kts 52°
2026-04-26 03:06 -29.08159 158.40203 35172 ft 486 kts 52°
2026-04-26 03:06 -29.04242 158.46499 35167 ft 485 kts 52°
2026-04-26 03:07 -29.00330 158.52778 35164 ft 485 kts 52°
2026-04-26 03:07 -28.96415 158.59053 35166 ft 485 kts 52°
2026-04-26 03:08 -28.92493 158.65328 35167 ft 485 kts 52°
2026-04-26 03:08 -28.88567 158.71601 35162 ft 485 kts 52°
2026-04-26 03:09 -28.84665 158.77827 35161 ft 486 kts 52°
2026-04-26 03:09 -28.80729 158.84098 35162 ft 487 kts 51°
2026-04-26 03:10 -28.76776 158.90383 35159 ft 488 kts 52°
2026-04-26 03:10 -28.72811 158.96682 35157 ft 489 kts 52°
2026-04-26 03:11 -28.68830 159.02996 35153 ft 491 kts 52°
2026-04-26 03:11 -28.64840 159.09315 35159 ft 492 kts 52°
2026-04-26 03:12 -28.60861 159.15605 35154 ft 492 kts 51°
2026-04-26 03:12 -28.56865 159.21914 35153 ft 491 kts 51°
2026-04-26 03:13 -28.52876 159.28202 35144 ft 490 kts 51°
2026-04-26 03:13 -28.48889 159.34479 35144 ft 488 kts 51°
2026-04-26 03:14 -28.45584 159.39675 35150 ft 487 kts 51°
2026-04-26 03:14 -28.41622 159.45896 35142 ft 485 kts 51°
2026-04-26 03:15 -28.37670 159.52091 35139 ft 483 kts 51°
2026-04-26 03:15 -28.33727 159.58262 35148 ft 482 kts 51°
2026-04-26 03:16 -28.29792 159.64414 35138 ft 481 kts 51°
2026-04-26 03:16 -28.25862 159.70547 35136 ft 480 kts 51°
2026-04-26 03:17 -28.21932 159.76672 35126 ft 480 kts 51°
2026-04-26 03:17 -28.17997 159.82796 35142 ft 481 kts 51°
2026-04-26 03:18 -28.14049 159.88934 35136 ft 482 kts 51°
2026-04-26 03:18 -28.10087 159.95080 35133 ft 483 kts 51°
2026-04-26 03:19 -28.06122 160.01225 35129 ft 483 kts 51°
2026-04-26 03:19 -28.02176 160.07332 35124 ft 483 kts 51°
2026-04-26 03:20 -27.98209 160.13462 35121 ft 482 kts 50°
2026-04-26 03:20 -27.94248 160.19574 35117 ft 481 kts 50°
2026-04-26 03:21 -27.90289 160.25676 35115 ft 481 kts 50°
2026-04-26 03:21 -27.86324 160.31777 35115 ft 481 kts 50°
2026-04-26 03:22 -27.82360 160.37869 35112 ft 481 kts 50°
2026-04-26 03:22 -27.78395 160.43952 35111 ft 481 kts 50°
2026-04-26 03:23 -27.74424 160.50038 35106 ft 482 kts 50°
2026-04-26 03:23 -27.70434 160.56143 35105 ft 484 kts 50°
2026-04-26 03:24 -27.66425 160.62268 35102 ft 486 kts 50°
2026-04-26 03:24 -27.62426 160.68371 35101 ft 487 kts 50°
2026-04-26 03:25 -27.58387 160.74524 35098 ft 488 kts 50°
2026-04-26 03:25 -27.54351 160.80667 35098 ft 488 kts 50°
2026-04-26 03:26 -27.50308 160.86808 35095 ft 488 kts 50°
2026-04-26 03:26 -27.46261 160.92950 35091 ft 488 kts 50°
2026-04-26 03:27 -27.42232 160.99055 35093 ft 488 kts 49°
2026-04-26 03:27 -27.38177 161.05190 35087 ft 488 kts 49°
2026-04-26 03:28 -27.34122 161.11318 35083 ft 488 kts 49°
2026-04-26 03:28 -27.30063 161.17443 35085 ft 487 kts 49°
2026-04-26 03:29 -27.26006 161.23556 35081 ft 488 kts 49°
2026-04-26 03:29 -27.21946 161.29665 35077 ft 486 kts 48°
2026-04-26 03:30 -27.17927 161.35704 35078 ft 485 kts 48°
2026-04-26 03:30 -27.13893 161.41758 35070 ft 482 kts 48°
2026-04-26 03:31 -27.09868 161.47788 35071 ft 483 kts 48°
2026-04-26 03:31 -27.05843 161.53813 35070 ft 482 kts 48°
2026-04-26 03:32 -27.01815 161.59832 35067 ft 481 kts 48°
2026-04-26 03:32 -26.97787 161.65844 35066 ft 481 kts 48°
2026-04-26 03:33 -26.94004 161.71984 35102 ft 485 kts 56°
2026-04-26 03:33 -26.90657 161.78576 35074 ft 487 kts 55°
2026-04-26 03:34 -26.87317 161.85180 35075 ft 487 kts 55°
2026-04-26 03:34 -26.83974 161.91766 35074 ft 486 kts 54°
2026-04-26 03:35 -26.80626 161.98354 35070 ft 486 kts 54°
2026-04-26 03:35 -26.77284 162.04922 35063 ft 485 kts 54°
2026-04-26 03:36 -26.73937 162.11485 35057 ft 485 kts 54°
2026-04-26 03:36 -26.70614 162.17997 35053 ft 484 kts 54°
2026-04-26 03:37 -26.67269 162.24540 35053 ft 483 kts 54°
2026-04-26 03:37 -26.63916 162.31086 35045 ft 486 kts 54°
2026-04-26 03:38 -26.60549 162.37656 35046 ft 487 kts 54°
2026-04-26 03:38 -26.57177 162.44222 35047 ft 487 kts 54°
2026-04-26 03:39 -26.53805 162.50778 35041 ft 487 kts 54°
2026-04-26 03:39 -26.50446 162.57300 35039 ft 487 kts 54°
2026-04-26 03:40 -26.47067 162.63851 35037 ft 487 kts 54°
2026-04-26 03:40 -26.43683 162.70402 35038 ft 486 kts 54°
2026-04-26 03:41 -26.40305 162.76933 35038 ft 486 kts 54°
2026-04-26 03:41 -26.36921 162.83464 35034 ft 486 kts 54°
2026-04-26 03:42 -26.33532 162.89996 35043 ft 486 kts 54°
2026-04-26 03:42 -26.30162 162.96483 35033 ft 487 kts 54°
2026-04-26 03:43 -26.26759 163.03007 35032 ft 486 kts 53°
2026-04-26 03:43 -26.23308 163.09500 35024 ft 487 kts 53°
2026-04-26 03:44 -26.19869 163.16020 35017 ft 488 kts 53°
2026-04-26 03:44 -26.16427 163.22505 35022 ft 490 kts 53°
2026-04-26 03:45 -26.12960 163.29045 35021 ft 492 kts 53°
2026-04-26 03:45 -26.09470 163.35610 35019 ft 494 kts 53°
2026-04-26 03:46 -26.05961 163.42205 35015 ft 495 kts 53°
2026-04-26 03:47 -26.00672 163.52124 35018 ft 499 kts 53°
2026-04-26 03:47 -25.97120 163.58776 35008 ft 501 kts 53°
2026-04-26 03:48 -25.93553 163.65445 35011 ft 502 kts 53°
2026-04-26 03:48 -25.89998 163.72082 35011 ft 503 kts 53°
2026-04-26 03:49 -25.86414 163.78763 35010 ft 504 kts 53°
2026-04-26 03:49 -25.82820 163.85454 35006 ft 505 kts 52°
2026-04-26 03:50 -25.79217 163.92149 35003 ft 506 kts 52°
2026-04-26 03:50 -25.75607 163.98850 35011 ft 506 kts 52°
2026-04-26 03:51 -25.71990 164.05555 34995 ft 506 kts 52°
2026-04-26 03:51 -25.68375 164.12243 35004 ft 506 kts 52°
2026-04-26 03:52 -25.64750 164.18943 34997 ft 506 kts 52°
2026-04-26 03:52 -25.61125 164.25633 34997 ft 506 kts 52°
2026-04-26 03:53 -25.57515 164.32283 35000 ft 506 kts 52°
2026-04-26 03:53 -25.53884 164.38965 34995 ft 506 kts 52°
2026-04-26 03:54 -25.50252 164.45637 34992 ft 506 kts 52°
2026-04-26 03:54 -25.46622 164.52299 34994 ft 505 kts 52°
2026-04-26 03:55 -25.42993 164.58946 34992 ft 505 kts 52°
2026-04-26 03:55 -25.39354 164.65604 34989 ft 505 kts 52°
2026-04-26 03:56 -25.35713 164.72255 34983 ft 505 kts 52°
2026-04-26 03:56 -25.32091 164.78861 34978 ft 506 kts 52°
2026-04-26 03:57 -25.28437 164.85518 34979 ft 507 kts 52°
2026-04-26 03:57 -25.24767 164.92195 34972 ft 508 kts 52°
2026-04-26 03:58 -25.21089 164.98875 34974 ft 509 kts 52°
2026-04-26 03:58 -25.17402 165.05562 34969 ft 510 kts 52°
2026-04-26 03:59 -25.13702 165.12264 34967 ft 512 kts 52°
2026-04-26 03:59 -25.09994 165.18973 34963 ft 512 kts 51°
2026-04-26 04:00 -25.06281 165.25679 34961 ft 512 kts 51°
2026-04-26 04:00 -25.02563 165.32384 34963 ft 513 kts 51°
2026-04-26 04:01 -24.98865 165.39046 34964 ft 513 kts 51°
2026-04-26 04:01 -24.95137 165.45748 34957 ft 512 kts 51°
2026-04-26 04:02 -24.92040 165.51315 34965 ft 512 kts 51°
2026-04-26 04:02 -24.88303 165.58015 34964 ft 513 kts 50°
2026-04-26 04:03 -24.84563 165.64718 34958 ft 512 kts 50°
2026-04-26 04:03 -24.80828 165.71397 34953 ft 511 kts 50°
2026-04-26 04:04 -24.77124 165.78015 34951 ft 511 kts 50°
2026-04-26 04:04 -24.73401 165.84656 34947 ft 510 kts 50°
2026-04-26 04:05 -24.69670 165.91304 34941 ft 509 kts 50°
2026-04-26 04:05 -24.65943 165.97932 34945 ft 509 kts 49°
2026-04-26 04:06 -24.62218 166.04550 34941 ft 508 kts 49°
2026-04-26 04:06 -24.58517 166.11117 34947 ft 508 kts 49°
2026-04-26 04:07 -24.54785 166.17728 34933 ft 508 kts 49°
2026-04-26 04:07 -24.51061 166.24318 34932 ft 507 kts 49°
2026-04-26 04:08 -24.47338 166.30896 34930 ft 507 kts 49°
2026-04-26 04:08 -24.43610 166.37474 34927 ft 507 kts 49°
2026-04-26 04:09 -24.39881 166.44046 34927 ft 507 kts 48°
2026-04-26 04:09 -24.36148 166.50616 34923 ft 507 kts 48°
2026-04-26 04:10 -24.32410 166.57182 34920 ft 507 kts 48°
2026-04-26 04:10 -24.28697 166.63700 34922 ft 507 kts 48°
2026-04-26 04:11 -24.24956 166.70256 34921 ft 507 kts 48°
2026-04-26 04:11 -24.21209 166.76814 34916 ft 508 kts 47°
2026-04-26 04:12 -24.17454 166.83379 34914 ft 508 kts 47°
2026-04-26 04:12 -24.13721 166.89895 34914 ft 508 kts 47°
2026-04-26 04:13 -24.09958 166.96455 34912 ft 508 kts 47°
2026-04-26 04:13 -24.06189 167.03016 34916 ft 509 kts 47°
2026-04-26 04:14 -24.02423 167.09566 34910 ft 508 kts 47°
2026-04-26 04:14 -23.98679 167.16065 34909 ft 507 kts 47°
2026-04-26 04:15 -23.94682 167.22340 34917 ft 503 kts 44°
2026-04-26 04:15 -23.90666 167.28602 34905 ft 502 kts 44°
2026-04-26 04:16 -23.86642 167.34842 34904 ft 502 kts 44°
2026-04-26 04:16 -23.82623 167.41082 34909 ft 502 kts 44°
2026-04-26 04:17 -23.78597 167.47316 34903 ft 502 kts 44°
2026-04-26 04:17 -23.74578 167.53537 34900 ft 501 kts 44°
2026-04-26 04:18 -23.70559 167.59747 34897 ft 500 kts 44°
2026-04-26 04:18 -23.66542 167.65948 34899 ft 500 kts 44°
2026-04-26 04:19 -23.62524 167.72143 34901 ft 500 kts 44°
2026-04-26 04:19 -23.58503 167.78334 34891 ft 500 kts 44°
2026-04-26 04:20 -23.54510 167.84475 34890 ft 499 kts 44°
2026-04-26 04:20 -23.50490 167.90649 34886 ft 499 kts 44°
2026-04-26 04:21 -23.46468 167.96820 34886 ft 498 kts 44°
2026-04-26 04:21 -23.42447 168.02981 34883 ft 499 kts 44°
2026-04-26 04:22 -23.38422 168.09141 34884 ft 500 kts 44°
2026-04-26 04:22 -23.34416 168.15265 34879 ft 500 kts 45°
2026-04-26 04:23 -23.30376 168.21433 34879 ft 500 kts 45°
2026-04-26 04:23 -23.26335 168.27595 34877 ft 500 kts 45°
2026-04-26 04:24 -23.22287 168.33761 34872 ft 500 kts 45°
2026-04-26 04:24 -23.18240 168.39916 34879 ft 500 kts 45°
2026-04-26 04:25 -23.14186 168.46076 34872 ft 501 kts 45°
2026-04-26 04:25 -23.10131 168.52231 34869 ft 501 kts 45°
2026-04-26 04:26 -23.06069 168.58388 34867 ft 502 kts 45°
2026-04-26 04:26 -23.02020 168.64519 34861 ft 503 kts 45°
2026-04-26 04:27 -22.97937 168.70696 34877 ft 504 kts 44°
2026-04-26 04:27 -22.93845 168.76874 34865 ft 502 kts 44°
2026-04-26 04:28 -22.89760 168.83037 34863 ft 504 kts 44°
2026-04-26 04:28 -22.85665 168.89208 34857 ft 504 kts 44°
2026-04-26 04:29 -22.81592 168.95338 34851 ft 505 kts 44°
2026-04-26 04:29 -22.77477 169.01523 34862 ft 506 kts 44°
2026-04-26 04:30 -22.73352 169.07717 34852 ft 507 kts 44°
2026-04-26 04:30 -22.69229 169.13903 34847 ft 506 kts 44°
2026-04-26 04:31 -22.65095 169.20093 34848 ft 506 kts 44°
2026-04-26 04:31 -22.60987 169.26242 34850 ft 506 kts 44°
2026-04-26 04:32 -22.56851 169.32422 34852 ft 507 kts 44°
2026-04-26 04:32 -22.52714 169.38598 34853 ft 507 kts 44°
2026-04-26 04:33 -22.48568 169.44779 34850 ft 507 kts 44°
2026-04-26 04:33 -22.44414 169.50966 34849 ft 508 kts 44°
2026-04-26 04:34 -22.40259 169.57147 34849 ft 508 kts 44°
2026-04-26 04:34 -22.36118 169.63298 34849 ft 509 kts 44°
2026-04-26 04:35 -22.31957 169.69474 34847 ft 509 kts 44°
2026-04-26 04:35 -22.27786 169.75657 34847 ft 509 kts 44°
2026-04-26 04:36 -22.23611 169.81839 34848 ft 509 kts 44°
2026-04-26 04:36 -22.19436 169.88013 34850 ft 510 kts 44°
2026-04-26 04:37 -22.15247 169.94200 34844 ft 511 kts 44°
2026-04-26 04:37 -22.11052 170.00393 34849 ft 509 kts 44°
2026-04-26 04:38 -22.06870 170.06556 34847 ft 509 kts 44°
2026-04-26 04:38 -22.02714 170.12674 34849 ft 509 kts 44°
2026-04-26 04:39 -21.98526 170.18817 34850 ft 508 kts 43°
2026-04-26 04:39 -21.94224 170.24868 34847 ft 508 kts 43°
2026-04-26 04:40 -21.89969 170.30957 34851 ft 509 kts 44°
2026-04-26 04:40 -21.85686 170.37029 34851 ft 509 kts 43°
2026-04-26 04:41 -21.81405 170.43109 34852 ft 510 kts 44°
2026-04-26 04:41 -21.77113 170.49196 34860 ft 510 kts 44°
2026-04-26 04:42 -21.72818 170.55277 34851 ft 510 kts 44°
2026-04-26 04:42 -21.68552 170.61313 34853 ft 510 kts 44°
2026-04-26 04:43 -21.64240 170.67405 34850 ft 511 kts 44°
2026-04-26 04:43 -21.59927 170.73495 34848 ft 511 kts 44°
2026-04-26 04:44 -21.55614 170.79575 34851 ft 511 kts 44°
2026-04-26 04:44 -21.51321 170.85622 34849 ft 512 kts 44°
2026-04-26 04:45 -21.47000 170.91701 34850 ft 512 kts 44°
2026-04-26 04:45 -21.42674 170.97781 34859 ft 512 kts 44°
2026-04-26 04:46 -21.38350 171.03851 34856 ft 512 kts 44°
2026-04-26 04:46 -21.34022 171.09921 34856 ft 512 kts 44°
2026-04-26 04:47 -21.29721 171.15944 34857 ft 512 kts 44°
2026-04-26 04:47 -21.25374 171.22027 34857 ft 513 kts 44°
2026-04-26 04:48 -21.18859 171.31131 34856 ft 513 kts 45°
2026-04-26 04:48 -21.14537 171.37162 34858 ft 512 kts 45°
2026-04-26 04:49 -21.10190 171.43220 34861 ft 513 kts 45°
2026-04-26 04:49 -21.05850 171.49265 34860 ft 512 kts 45°
2026-04-26 04:50 -21.02239 171.54287 34861 ft 511 kts 45°
2026-04-26 04:50 -20.97900 171.60318 34862 ft 511 kts 45°
2026-04-26 04:51 -20.93557 171.66346 34860 ft 512 kts 45°
2026-04-26 04:51 -20.89211 171.72373 34872 ft 512 kts 45°
2026-04-26 04:52 -20.84854 171.78407 34868 ft 512 kts 45°
2026-04-26 04:52 -20.80497 171.84436 34867 ft 512 kts 45°
2026-04-26 04:53 -20.76168 171.90421 34864 ft 512 kts 45°
2026-04-26 04:53 -20.71801 171.96451 34865 ft 512 kts 45°
2026-04-26 04:54 -20.67444 172.02461 34863 ft 511 kts 45°
2026-04-26 04:54 -20.63090 172.08460 34865 ft 511 kts 46°
2026-04-26 04:55 -20.58727 172.14466 34865 ft 511 kts 46°
2026-04-26 04:55 -20.54396 172.20421 34861 ft 511 kts 46°
2026-04-26 04:56 -20.50037 172.26408 34862 ft 511 kts 46°
2026-04-26 04:56 -20.45678 172.32391 34862 ft 510 kts 46°
2026-04-26 04:57 -20.41316 172.38369 34864 ft 510 kts 46°
2026-04-26 04:57 -20.36961 172.44333 34862 ft 510 kts 46°
2026-04-26 04:58 -20.32594 172.50307 34859 ft 510 kts 46°
2026-04-26 04:58 -20.28228 172.56274 34863 ft 509 kts 46°
2026-04-26 04:59 -20.23908 172.62171 34868 ft 508 kts 46°
2026-04-26 04:59 -20.19551 172.68112 34864 ft 509 kts 46°
2026-04-26 05:00 -20.15188 172.74058 34869 ft 509 kts 46°
2026-04-26 05:00 -20.10822 172.79998 34871 ft 510 kts 46°
2026-04-26 05:01 -20.06447 172.85947 34874 ft 510 kts 46°
2026-04-26 05:01 -20.02073 172.91888 34866 ft 509 kts 46°
2026-04-26 05:02 -19.97704 172.97816 34868 ft 509 kts 46°
2026-04-26 05:02 -19.93336 173.03737 34875 ft 509 kts 46°
2026-04-26 05:03 -19.88997 173.09613 34872 ft 509 kts 46°
2026-04-26 05:03 -19.84628 173.15524 34871 ft 509 kts 46°
2026-04-26 05:04 -19.80253 173.21435 34868 ft 509 kts 46°
2026-04-26 05:04 -19.75876 173.27345 34869 ft 509 kts 46°
2026-04-26 05:05 -19.71493 173.33257 34872 ft 510 kts 46°
2026-04-26 05:05 -19.67103 173.39172 34868 ft 510 kts 46°
2026-04-26 05:06 -19.62704 173.45094 34864 ft 511 kts 46°
2026-04-26 05:06 -19.58299 173.51017 34865 ft 511 kts 46°
2026-04-26 05:07 -19.53909 173.56915 34865 ft 513 kts 46°
2026-04-26 05:07 -19.49463 173.62882 34863 ft 512 kts 46°
2026-04-26 05:08 -19.45075 173.68765 34868 ft 512 kts 46°
2026-04-26 05:08 -19.40592 173.74626 34879 ft 509 kts 43°
2026-04-26 05:09 -19.35904 173.80278 34870 ft 511 kts 44°
2026-04-26 05:09 -19.31212 173.85932 34867 ft 511 kts 43°
2026-04-26 05:10 -19.26514 173.91577 34867 ft 511 kts 44°
2026-04-26 05:10 -19.21820 173.97225 34861 ft 511 kts 43°
2026-04-26 05:11 -19.17112 174.02872 34865 ft 511 kts 44°
2026-04-26 05:11 -19.12410 174.08518 34874 ft 511 kts 43°
2026-04-26 05:12 -19.07744 174.14107 34870 ft 509 kts 44°
2026-04-26 05:12 -19.03049 174.19731 34871 ft 510 kts 44°
2026-04-26 05:13 -18.98347 174.25355 34866 ft 510 kts 44°
2026-04-26 05:13 -18.93636 174.30985 34868 ft 511 kts 44°
2026-04-26 05:14 -18.88925 174.36612 34870 ft 511 kts 44°
2026-04-26 05:14 -18.84241 174.42199 34865 ft 511 kts 44°
2026-04-26 05:15 -18.79531 174.47814 34868 ft 511 kts 44°
2026-04-26 05:15 -18.74818 174.53425 34869 ft 510 kts 44°
2026-04-26 05:16 -18.70101 174.59038 34873 ft 511 kts 44°
2026-04-26 05:16 -18.65368 174.64663 34872 ft 512 kts 44°
2026-04-26 05:17 -18.60638 174.70281 34867 ft 512 kts 44°
2026-04-26 05:17 -18.55893 174.75910 34866 ft 513 kts 44°
2026-04-26 05:18 -18.51149 174.81534 34861 ft 513 kts 44°
2026-04-26 05:18 -18.46406 174.87151 34869 ft 513 kts 44°
2026-04-26 05:19 -18.41685 174.92738 34871 ft 512 kts 44°
2026-04-26 05:19 -18.36939 174.98347 34867 ft 514 kts 44°
2026-04-26 05:20 -18.32180 175.03969 34866 ft 513 kts 44°
2026-04-26 05:20 -18.27426 175.09579 34860 ft 514 kts 44°
2026-04-26 05:21 -18.22667 175.15190 34862 ft 514 kts 44°
2026-04-26 05:21 -18.17935 175.20765 34861 ft 513 kts 44°
2026-04-26 05:22 -18.13167 175.26376 34861 ft 514 kts 44°
2026-04-26 05:22 -18.08396 175.31987 34862 ft 514 kts 44°
2026-04-26 05:23 -18.03629 175.37587 34857 ft 514 kts 44°
2026-04-26 05:23 -17.98863 175.43182 34861 ft 514 kts 44°
2026-04-26 05:24 -17.94095 175.48774 34852 ft 514 kts 44°
2026-04-26 05:24 -17.89318 175.54372 34852 ft 514 kts 44°
2026-04-26 05:25 -17.84574 175.59925 34855 ft 514 kts 44°
2026-04-26 05:25 -17.79801 175.65509 34856 ft 513 kts 44°
2026-04-26 05:26 -17.75033 175.71081 34858 ft 512 kts 44°
2026-04-26 05:26 -17.70264 175.76650 34862 ft 513 kts 44°
2026-04-26 05:27 -17.65488 175.82223 34855 ft 513 kts 44°
2026-04-26 05:27 -17.60710 175.87792 34856 ft 514 kts 44°
2026-04-26 05:28 -17.55926 175.93364 34857 ft 514 kts 44°
2026-04-26 05:28 -17.51175 175.98894 34861 ft 514 kts 44°
2026-04-26 05:29 -17.46397 176.04449 34855 ft 513 kts 44°
2026-04-26 05:29 -17.41623 176.09995 34852 ft 512 kts 44°
2026-04-26 05:30 -17.36851 176.15535 34851 ft 512 kts 44°
2026-04-26 05:30 -17.32083 176.21065 34847 ft 511 kts 44°
2026-04-26 05:31 -17.27314 176.26591 34843 ft 512 kts 44°
2026-04-26 05:31 -17.22536 176.32124 34842 ft 511 kts 44°
2026-04-26 05:32 -17.17756 176.37653 34843 ft 512 kts 44°
2026-04-26 05:32 -17.13013 176.43136 34847 ft 511 kts 44°
2026-04-26 05:33 -17.08242 176.48646 34845 ft 511 kts 44°
2026-04-26 05:33 -17.03473 176.54151 34844 ft 511 kts 44°
2026-04-26 05:34 -16.98696 176.59659 34846 ft 511 kts 44°
2026-04-26 05:34 -16.93924 176.65157 34842 ft 510 kts 44°
2026-04-26 05:35 -16.89151 176.70651 34841 ft 511 kts 44°
2026-04-26 05:35 -16.84400 176.76116 34842 ft 511 kts 44°
2026-04-26 05:36 -16.79619 176.81611 34841 ft 511 kts 44°
2026-04-26 05:36 -16.74842 176.87098 34842 ft 510 kts 44°
2026-04-26 05:37 -16.70067 176.92577 34841 ft 510 kts 44°
2026-04-26 05:37 -16.65288 176.98057 34840 ft 510 kts 44°
2026-04-26 05:38 -16.61324 177.02598 34850 ft 509 kts 44°
2026-04-26 05:38 -16.56555 177.08059 34848 ft 509 kts 44°
2026-04-26 05:39 -16.51790 177.13509 34846 ft 509 kts 44°
2026-04-26 05:39 -16.47029 177.18952 34843 ft 508 kts 44°
2026-04-26 05:40 -16.42266 177.24393 34843 ft 507 kts 44°
2026-04-26 05:40 -16.37507 177.29824 34843 ft 507 kts 44°
2026-04-26 05:41 -16.32786 177.35208 34837 ft 506 kts 45°
2026-04-26 05:41 -16.28041 177.40615 34839 ft 505 kts 45°
2026-04-26 05:42 -16.23293 177.46021 34837 ft 505 kts 45°
2026-04-26 05:42 -16.18542 177.51427 34832 ft 505 kts 45°
2026-04-26 05:43 -16.13795 177.56824 34839 ft 505 kts 45°
2026-04-26 05:43 -16.09059 177.62204 34832 ft 504 kts 45°
2026-04-26 05:44 -16.04329 177.67574 34832 ft 503 kts 45°
2026-04-26 05:44 -15.99629 177.72905 34835 ft 503 kts 45°
2026-04-26 05:45 -15.94904 177.78261 34836 ft 502 kts 45°
2026-04-26 05:45 -15.90174 177.83618 34833 ft 502 kts 45°
2026-04-26 05:46 -15.85459 177.88954 34833 ft 501 kts 45°
2026-04-26 05:46 -15.80738 177.94293 34835 ft 502 kts 45°
2026-04-26 05:47 -15.76016 177.99629 34832 ft 501 kts 45°
2026-04-26 05:47 -15.71332 178.04919 34831 ft 500 kts 45°
2026-04-26 05:48 -15.58428 178.19469 34843 ft 499 kts 45°
2026-04-26 05:48 -15.41704 178.36044 34843 ft 501 kts 43°
2026-04-26 05:49 -15.21967 178.55137 34845 ft 503 kts 40°
2026-04-26 05:50 -15.16873 178.60054 34849 ft 503 kts 41°
2026-04-26 05:50 -15.07369 178.69160 34839 ft 503 kts 40°
2026-04-26 05:51 -14.73725 179.01379 34846 ft 502 kts 40°
2026-04-26 05:51 -14.36814 179.36529 34833 ft 503 kts 40°
2026-04-26 05:52 -13.98225 179.73131 34827 ft 504 kts 41°
2026-04-26 05:52 -13.79720 179.90612 34824 ft 504 kts 41°
2026-04-26 05:53 -13.74544 179.95488 34829 ft 504 kts 41°
2026-04-26 05:53 -13.69376 -179.99635 34827 ft 505 kts 41°
2026-04-26 05:54 -13.64197 -179.94758 34826 ft 505 kts 41°
2026-04-26 05:54 -13.59016 -179.89878 34825 ft 505 kts 41°
2026-04-26 05:55 -13.53825 -179.84993 34826 ft 505 kts 41°
2026-04-26 05:55 -13.48641 -179.80117 34823 ft 505 kts 41°
2026-04-26 05:56 -13.43449 -179.75237 34825 ft 505 kts 41°
2026-04-26 05:56 -13.38288 -179.70390 34825 ft 506 kts 41°
2026-04-26 05:57 -13.33091 -179.65511 34823 ft 506 kts 41°
2026-04-26 05:57 -13.27893 -179.60633 34819 ft 506 kts 41°
2026-04-26 05:58 -13.22682 -179.55748 34823 ft 506 kts 41°
2026-04-26 05:58 -13.17472 -179.50867 34823 ft 506 kts 41°
2026-04-26 05:59 -13.12309 -179.46031 34822 ft 506 kts 42°
2026-04-26 05:59 -13.07109 -179.41164 34824 ft 506 kts 42°
2026-04-26 06:00 -13.01911 -179.36303 34825 ft 506 kts 42°
2026-04-26 06:00 -12.96710 -179.31440 34821 ft 505 kts 42°
2026-04-26 06:01 -12.91510 -179.26582 34820 ft 506 kts 42°
2026-04-26 06:01 -12.86305 -179.21722 34818 ft 506 kts 42°
2026-04-26 06:02 -12.81093 -179.16859 34823 ft 506 kts 42°
2026-04-26 06:02 -12.75879 -179.11996 34823 ft 506 kts 42°
2026-04-26 06:03 -12.70700 -179.07168 34827 ft 506 kts 42°
2026-04-26 06:03 -12.65483 -179.02308 34826 ft 507 kts 42°
2026-04-26 06:04 -12.60264 -178.97450 34825 ft 507 kts 42°
2026-04-26 06:04 -12.55037 -178.92586 34824 ft 507 kts 42°
2026-04-26 06:05 -12.49844 -178.87757 34822 ft 507 kts 42°
2026-04-26 06:05 -12.44619 -178.82901 34824 ft 507 kts 42°
2026-04-26 06:06 -12.39394 -178.78047 34821 ft 507 kts 42°
2026-04-26 06:06 -12.34172 -178.73200 34820 ft 506 kts 42°
2026-04-26 06:07 -12.28950 -178.68354 34820 ft 506 kts 42°
2026-04-26 06:07 -12.23728 -178.63512 34821 ft 506 kts 42°
2026-04-26 06:08 -12.18537 -178.58701 34821 ft 507 kts 42°
2026-04-26 06:08 -12.13311 -178.53861 34822 ft 507 kts 42°
2026-04-26 06:09 -12.08084 -178.49021 34822 ft 507 kts 42°
2026-04-26 06:09 -12.02851 -178.44179 34820 ft 507 kts 42°
2026-04-26 06:10 -11.97595 -178.39364 34825 ft 507 kts 39°
2026-04-26 06:10 -11.92226 -178.34687 34825 ft 508 kts 41°
2026-04-26 06:11 -11.86846 -178.29999 34829 ft 508 kts 40°
2026-04-26 06:11 -11.81494 -178.25358 34832 ft 508 kts 41°
2026-04-26 06:12 -11.76121 -178.20677 34830 ft 508 kts 41°
2026-04-26 06:12 -11.70733 -178.16006 34830 ft 508 kts 41°
2026-04-26 06:13 -11.65355 -178.11332 34831 ft 507 kts 41°
2026-04-26 06:13 -11.59973 -178.06666 34831 ft 508 kts 41°
2026-04-26 06:14 -11.54594 -178.01999 34830 ft 507 kts 41°
2026-04-26 06:14 -11.49247 -177.97366 34829 ft 507 kts 41°
2026-04-26 06:15 -11.43861 -177.92700 34831 ft 507 kts 41°
2026-04-26 06:15 -11.38478 -177.88040 34830 ft 508 kts 41°
2026-04-26 06:16 -11.33090 -177.83376 34828 ft 508 kts 41°
2026-04-26 06:16 -11.27697 -177.78712 34829 ft 508 kts 41°
2026-04-26 06:17 -11.22312 -177.74056 34828 ft 508 kts 41°
2026-04-26 06:17 -11.16923 -177.69400 34828 ft 508 kts 41°
2026-04-26 06:18 -11.11533 -177.64745 34830 ft 508 kts 41°
2026-04-26 06:18 -11.06174 -177.60120 34823 ft 508 kts 41°
2026-04-26 06:19 -11.00776 -177.55462 34826 ft 508 kts 41°
2026-04-26 06:19 -10.95387 -177.50814 34826 ft 508 kts 41°
2026-04-26 06:20 -10.89988 -177.46162 34825 ft 508 kts 41°
2026-04-26 06:20 -10.84592 -177.41513 34822 ft 508 kts 41°
2026-04-26 06:21 -10.79196 -177.36867 34824 ft 508 kts 41°
2026-04-26 06:21 -10.73795 -177.32217 34821 ft 508 kts 41°
2026-04-26 06:22 -10.68398 -177.27576 34824 ft 508 kts 41°
2026-04-26 06:22 -10.63036 -177.22965 34824 ft 508 kts 41°
2026-04-26 06:23 -10.57632 -177.18321 34821 ft 508 kts 41°
2026-04-26 06:23 -10.52228 -177.13678 34822 ft 508 kts 41°
2026-04-26 06:24 -10.46831 -177.09046 34823 ft 508 kts 41°
2026-04-26 06:24 -10.41430 -177.04410 34823 ft 508 kts 41°
2026-04-26 06:25 -10.36059 -176.99804 34822 ft 508 kts 41°
2026-04-26 06:25 -10.31562 -176.95947 34825 ft 508 kts 41°
2026-04-26 06:26 -10.26156 -176.91315 34822 ft 508 kts 41°
2026-04-26 06:26 -10.19845 -176.85908 34819 ft 508 kts 41°
2026-04-26 06:27 -10.15353 -176.82062 34822 ft 508 kts 41°
2026-04-26 06:27 -10.09955 -176.77443 34819 ft 508 kts 41°
2026-04-26 06:28 -10.04559 -176.72827 34824 ft 507 kts 41°
2026-04-26 06:28 -9.99158 -176.68208 34822 ft 507 kts 41°
2026-04-26 06:29 -9.93763 -176.63597 34823 ft 507 kts 41°
2026-04-26 06:29 -9.88360 -176.58982 34824 ft 507 kts 41°
2026-04-26 06:30 -9.82998 -176.54401 34820 ft 507 kts 41°
2026-04-26 06:30 -9.77603 -176.49798 34820 ft 507 kts 41°
2026-04-26 06:31 -9.72199 -176.45186 34822 ft 507 kts 41°
2026-04-26 06:31 -9.66798 -176.40582 34820 ft 507 kts 41°
2026-04-26 06:32 -9.61401 -176.35979 34821 ft 507 kts 41°
2026-04-26 06:32 -9.56000 -176.31378 34816 ft 507 kts 41°
2026-04-26 06:33 -9.50634 -176.26807 34819 ft 507 kts 41°
2026-04-26 06:33 -9.45233 -176.22210 34817 ft 507 kts 41°
2026-04-26 06:34 -9.39832 -176.17613 34816 ft 507 kts 41°
2026-04-26 06:34 -9.34439 -176.13025 34814 ft 506 kts 41°
2026-04-26 06:35 -9.29039 -176.08434 34816 ft 506 kts 41°
2026-04-26 06:35 -9.23644 -176.03848 34819 ft 506 kts 41°
2026-04-26 06:36 -9.18293 -175.99282 34818 ft 506 kts 41°
2026-04-26 06:36 -9.12907 -175.94694 34819 ft 506 kts 41°
2026-04-26 06:37 -9.07521 -175.90107 34814 ft 506 kts 41°
2026-04-26 06:37 -9.02132 -175.85518 34815 ft 506 kts 41°
2026-04-26 06:38 -8.96741 -175.80930 34811 ft 506 kts 41°
2026-04-26 06:38 -8.91442 -175.76422 34813 ft 506 kts 41°
2026-04-26 06:39 -8.86052 -175.71839 34813 ft 505 kts 41°
2026-04-26 06:39 -8.80708 -175.67294 34813 ft 505 kts 41°
2026-04-26 06:40 -8.75326 -175.62721 34813 ft 505 kts 41°
2026-04-26 06:40 -8.69947 -175.58153 34811 ft 505 kts 41°
2026-04-26 06:41 -8.64563 -175.53581 34814 ft 505 kts 41°
2026-04-26 06:41 -8.59182 -175.49015 34812 ft 505 kts 41°
2026-04-26 06:42 -8.53799 -175.44446 34812 ft 504 kts 41°
2026-04-26 06:42 -8.48425 -175.39890 34811 ft 504 kts 41°
2026-04-26 06:43 -8.43053 -175.35335 34814 ft 504 kts 41°
2026-04-26 06:43 -8.37681 -175.30783 34815 ft 504 kts 41°
2026-04-26 06:44 -8.32347 -175.26262 34812 ft 503 kts 41°
2026-04-26 06:44 -8.26981 -175.21721 34812 ft 503 kts 41°
2026-04-26 06:45 -8.21612 -175.17174 34812 ft 503 kts 41°
2026-04-26 06:45 -8.16246 -175.12634 34812 ft 503 kts 41°
2026-04-26 06:46 -8.10880 -175.08096 34811 ft 503 kts 41°
2026-04-26 06:46 -8.05507 -175.03551 34813 ft 503 kts 41°
2026-04-26 06:47 -8.00176 -174.99045 34810 ft 503 kts 41°
2026-04-26 06:47 -7.94802 -174.94505 34811 ft 503 kts 41°
2026-04-26 06:48 -7.89438 -174.89972 34808 ft 503 kts 41°
2026-04-26 06:48 -7.84065 -174.85436 34809 ft 503 kts 41°
2026-04-26 06:49 -7.78694 -174.80902 34804 ft 503 kts 41°
2026-04-26 06:49 -7.73328 -174.76375 34809 ft 503 kts 41°
2026-04-26 06:50 -7.67962 -174.71847 34807 ft 503 kts 41°
2026-04-26 06:50 -7.62630 -174.67352 34806 ft 503 kts 41°
2026-04-26 06:51 -7.57258 -174.62823 34808 ft 503 kts 41°
2026-04-26 06:51 -7.49202 -174.56036 34809 ft 503 kts 41°
2026-04-26 06:52 -7.43840 -174.51517 34810 ft 503 kts 41°
2026-04-26 06:52 -7.38467 -174.46996 34808 ft 503 kts 41°
2026-04-26 06:53 -7.33097 -174.42475 34809 ft 502 kts 41°
2026-04-26 06:53 -7.27767 -174.37991 34805 ft 502 kts 41°
2026-04-26 06:54 -7.22390 -174.33467 34806 ft 502 kts 41°
2026-04-26 06:54 -7.17018 -174.28951 34806 ft 502 kts 41°
2026-04-26 06:55 -7.11650 -174.24437 34804 ft 502 kts 41°
2026-04-26 06:55 -7.06285 -174.19929 34808 ft 502 kts 41°
2026-04-26 06:56 -7.00920 -174.15422 34808 ft 502 kts 41°
2026-04-26 06:56 -6.95591 -174.10946 34806 ft 502 kts 41°
2026-04-26 06:57 -6.90222 -174.06439 34807 ft 502 kts 41°
2026-04-26 06:57 -6.84861 -174.01940 34808 ft 502 kts 41°
2026-04-26 06:58 -6.79491 -173.97434 34809 ft 502 kts 41°
2026-04-26 06:58 -6.74127 -173.92935 34806 ft 502 kts 41°
2026-04-26 06:59 -6.68760 -173.88433 34806 ft 502 kts 41°
2026-04-26 06:59 -6.63396 -173.83938 34806 ft 502 kts 41°
2026-04-26 07:00 -6.58034 -173.79442 34807 ft 502 kts 41°
2026-04-26 07:00 -6.52670 -173.74950 34807 ft 502 kts 41°
2026-04-26 07:01 -6.47340 -173.70484 34809 ft 501 kts 41°
2026-04-26 07:01 -6.41973 -173.65992 34804 ft 501 kts 41°
2026-04-26 07:02 -6.36612 -173.61503 34803 ft 501 kts 41°
2026-04-26 07:02 -6.31252 -173.57017 34803 ft 501 kts 41°
2026-04-26 07:03 -6.25897 -173.52537 34805 ft 500 kts 41°
2026-04-26 07:03 -6.20584 -173.48093 34805 ft 500 kts 41°
2026-04-26 07:04 -6.15223 -173.43610 34805 ft 500 kts 41°
2026-04-26 07:04 -6.09873 -173.39138 34812 ft 500 kts 41°
2026-04-26 07:05 -6.04528 -173.34670 34811 ft 500 kts 41°
2026-04-26 07:05 -5.99184 -173.30206 34809 ft 499 kts 41°
2026-04-26 07:06 -5.93843 -173.25744 34809 ft 499 kts 41°
2026-04-26 07:06 -5.88500 -173.21283 34809 ft 499 kts 41°
2026-04-26 07:07 -5.83151 -173.16817 34807 ft 499 kts 41°
2026-04-26 07:07 -5.77808 -173.12358 34811 ft 499 kts 41°
2026-04-26 07:08 -5.72500 -173.07928 34810 ft 499 kts 41°
2026-04-26 07:08 -5.67151 -173.03467 34810 ft 500 kts 41°
2026-04-26 07:09 -5.61812 -172.99013 34808 ft 499 kts 41°
2026-04-26 07:09 -5.56471 -172.94560 34808 ft 499 kts 41°
2026-04-26 07:11 -5.43107 -172.83422 34810 ft 500 kts 41°
2026-04-26 07:11 -5.37795 -172.78995 34811 ft 499 kts 41°
2026-04-26 07:12 -5.32607 -172.74376 34800 ft 498 kts 45°
2026-04-26 07:12 -5.27569 -172.69591 34806 ft 498 kts 44°
2026-04-26 07:13 -5.22554 -172.64807 34804 ft 497 kts 44°
2026-04-26 07:13 -5.18386 -172.60838 34806 ft 497 kts 44°
2026-04-26 07:14 -5.13328 -172.56023 34811 ft 498 kts 44°
2026-04-26 07:14 -5.08326 -172.51259 34812 ft 499 kts 44°
2026-04-26 07:15 -5.03286 -172.46463 34806 ft 499 kts 44°
2026-04-26 07:15 -4.98239 -172.41668 34811 ft 499 kts 43°
2026-04-26 07:16 -4.93117 -172.36955 34812 ft 499 kts 43°
2026-04-26 07:16 -4.88034 -172.32212 34809 ft 498 kts 43°
2026-04-26 07:17 -4.82939 -172.27491 34809 ft 499 kts 43°
2026-04-26 07:17 -4.77841 -172.22754 34813 ft 500 kts 43°
2026-04-26 07:18 -4.72757 -172.18036 34815 ft 501 kts 43°
2026-04-26 07:18 -4.67637 -172.13285 34814 ft 501 kts 43°
2026-04-26 07:19 -4.62520 -172.08537 34814 ft 501 kts 43°
2026-04-26 07:19 -4.57404 -172.03792 34814 ft 502 kts 43°
2026-04-26 07:20 -4.52273 -171.99032 34815 ft 501 kts 43°
2026-04-26 07:20 -4.47150 -171.94283 34813 ft 501 kts 43°
2026-04-26 07:21 -4.42055 -171.89559 34814 ft 502 kts 42°
2026-04-26 07:21 -4.36923 -171.84802 34815 ft 502 kts 42°
2026-04-26 07:22 -4.31795 -171.80050 34814 ft 502 kts 42°
2026-04-26 07:22 -4.26663 -171.75296 34814 ft 502 kts 42°
2026-04-26 07:23 -4.21531 -171.70541 34819 ft 502 kts 42°
2026-04-26 07:23 -4.16397 -171.65786 34818 ft 503 kts 42°
2026-04-26 07:24 -4.11259 -171.61028 34813 ft 502 kts 42°
2026-04-26 07:24 -4.06122 -171.56273 34813 ft 503 kts 42°
2026-04-26 07:25 -4.01020 -171.51550 34816 ft 502 kts 42°
2026-04-26 07:25 -3.95886 -171.46798 34817 ft 502 kts 42°
2026-04-26 07:26 -3.90753 -171.42049 34817 ft 502 kts 41°
2026-04-26 07:26 -3.85618 -171.37299 34816 ft 502 kts 41°
2026-04-26 07:27 -3.80526 -171.32588 34815 ft 502 kts 41°
2026-04-26 07:27 -3.75399 -171.27846 34816 ft 501 kts 41°
2026-04-26 07:28 -3.70271 -171.23105 34819 ft 502 kts 41°
2026-04-26 07:28 -3.65143 -171.18364 34818 ft 502 kts 41°
2026-04-26 07:29 -3.60008 -171.13617 34818 ft 502 kts 41°
2026-04-26 07:29 -3.54874 -171.08872 34817 ft 502 kts 41°
2026-04-26 07:30 -3.49739 -171.04126 34817 ft 502 kts 41°
2026-04-26 07:30 -3.44642 -170.99418 34819 ft 502 kts 41°
2026-04-26 07:31 -3.39646 -170.94530 34819 ft 503 kts 45°
2026-04-26 07:31 -3.34808 -170.89456 34819 ft 503 kts 45°
2026-04-26 07:32 -3.29980 -170.84371 34822 ft 503 kts 45°
2026-04-26 07:32 -3.25142 -170.79284 34822 ft 504 kts 45°
2026-04-26 07:33 -3.20314 -170.74206 34822 ft 503 kts 45°
2026-04-26 07:33 -3.15513 -170.69158 34823 ft 504 kts 45°
2026-04-26 07:34 -3.10682 -170.64079 34826 ft 503 kts 45°
2026-04-26 07:34 -3.05855 -170.59004 34828 ft 503 kts 45°
2026-04-26 07:35 -3.01027 -170.53931 34826 ft 504 kts 44°
2026-04-26 07:35 -2.96194 -170.48852 34823 ft 504 kts 45°
2026-04-26 07:36 -2.91366 -170.43777 34825 ft 503 kts 44°
2026-04-26 07:36 -2.86530 -170.38697 34826 ft 504 kts 44°
2026-04-26 07:37 -2.81692 -170.33615 34828 ft 504 kts 44°
2026-04-26 07:37 -2.76859 -170.28539 34833 ft 504 kts 44°
2026-04-26 07:38 -2.72014 -170.23450 34829 ft 504 kts 44°
2026-04-26 07:38 -2.67175 -170.18369 34830 ft 504 kts 44°
2026-04-26 07:39 -2.62371 -170.13324 34827 ft 504 kts 44°
2026-04-26 07:39 -2.57534 -170.08246 34830 ft 504 kts 44°
2026-04-26 07:40 -2.52690 -170.03161 34828 ft 504 kts 44°
2026-04-26 07:40 -2.47857 -169.98088 34828 ft 504 kts 44°
2026-04-26 07:41 -2.43009 -169.93001 34831 ft 505 kts 44°
2026-04-26 07:41 -2.38193 -169.87947 34834 ft 506 kts 44°
2026-04-26 07:42 -2.33334 -169.82849 34838 ft 505 kts 44°
2026-04-26 07:42 -2.28482 -169.77758 34838 ft 505 kts 44°
2026-04-26 07:43 -2.23636 -169.72674 34833 ft 505 kts 44°
2026-04-26 07:43 -2.18796 -169.67597 34832 ft 504 kts 44°
2026-04-26 07:44 -2.13954 -169.62519 34832 ft 504 kts 44°
2026-04-26 07:44 -2.09114 -169.57443 34831 ft 504 kts 43°
2026-04-26 07:45 -2.04297 -169.52392 34834 ft 504 kts 43°
2026-04-26 07:45 -1.99457 -169.47317 34832 ft 504 kts 43°
2026-04-26 07:46 -1.94609 -169.42234 34833 ft 505 kts 43°
2026-04-26 07:46 -1.89758 -169.37148 34839 ft 505 kts 43°
2026-04-26 07:47 -1.84891 -169.32047 34840 ft 507 kts 43°
2026-04-26 07:47 -1.80059 -169.26982 34840 ft 507 kts 43°
2026-04-26 07:48 -1.75188 -169.21878 34841 ft 507 kts 43°
2026-04-26 07:48 -1.70314 -169.16770 34843 ft 507 kts 43°
2026-04-26 07:49 -1.65435 -169.11656 34843 ft 508 kts 43°
2026-04-26 07:49 -1.60559 -169.06547 34841 ft 507 kts 43°
2026-04-26 07:50 -1.53252 -168.98891 34841 ft 508 kts 43°
2026-04-26 07:50 -1.48408 -168.93817 34842 ft 508 kts 43°
2026-04-26 07:51 -1.43522 -168.88699 34846 ft 509 kts 43°
2026-04-26 07:51 -1.38629 -168.83573 34846 ft 509 kts 43°
2026-04-26 07:52 -1.33740 -168.78452 34848 ft 509 kts 43°
2026-04-26 07:52 -1.28851 -168.73332 34845 ft 509 kts 43°
2026-04-26 07:53 -1.23956 -168.68205 34846 ft 509 kts 43°
2026-04-26 07:53 -1.19087 -168.63107 34845 ft 510 kts 43°
2026-04-26 07:54 -1.14188 -168.57976 34846 ft 510 kts 43°
2026-04-26 07:54 -1.09279 -168.52835 34846 ft 511 kts 43°
2026-04-26 07:55 -1.04374 -168.47700 34847 ft 511 kts 43°
2026-04-26 07:55 -0.99467 -168.42562 34850 ft 511 kts 43°
2026-04-26 07:56 -0.94592 -168.37458 34847 ft 509 kts 43°
2026-04-26 07:56 -0.89701 -168.32338 34846 ft 510 kts 43°
2026-04-26 07:57 -0.84795 -168.27201 34845 ft 510 kts 43°
2026-04-26 07:57 -0.79886 -168.22063 34846 ft 510 kts 43°
2026-04-26 07:58 -0.75012 -168.16960 34846 ft 511 kts 43°
2026-04-26 07:58 -0.70097 -168.11815 34846 ft 511 kts 43°
2026-04-26 07:59 -0.65187 -168.06676 34849 ft 511 kts 43°
2026-04-26 07:59 -0.60270 -168.01530 34850 ft 512 kts 43°
2026-04-26 08:00 -0.55351 -167.96381 34850 ft 511 kts 43°
2026-04-26 08:00 -0.50432 -167.91233 34852 ft 512 kts 43°
2026-04-26 08:01 -0.46342 -167.86951 34849 ft 512 kts 43°
2026-04-26 08:01 -0.41411 -167.81792 34846 ft 513 kts 43°
2026-04-26 08:02 -0.36515 -167.76667 34847 ft 512 kts 43°
2026-04-26 08:02 -0.31587 -167.71509 34853 ft 513 kts 43°
2026-04-26 08:03 -0.26649 -167.66341 34853 ft 514 kts 43°
2026-04-26 08:03 -0.21710 -167.61172 34853 ft 514 kts 43°
2026-04-26 08:04 -0.16766 -167.55999 34852 ft 514 kts 43°
2026-04-26 08:04 -0.11854 -167.50858 34851 ft 515 kts 43°
2026-04-26 08:05 -0.06914 -167.45688 34855 ft 514 kts 43°
2026-04-26 08:05 -0.01969 -167.40513 34852 ft 515 kts 43°
2026-04-26 08:06 0.02974 -167.35340 34853 ft 515 kts 43°
2026-04-26 08:06 0.07943 -167.30140 34854 ft 515 kts 43°
2026-04-26 08:07 0.12896 -167.24956 34849 ft 516 kts 43°
2026-04-26 08:07 0.17856 -167.19766 34854 ft 516 kts 43°
2026-04-26 08:08 0.22820 -167.14570 34857 ft 517 kts 43°
2026-04-26 08:08 0.27762 -167.09399 34857 ft 517 kts 43°
2026-04-26 08:09 0.32730 -167.04200 34857 ft 517 kts 43°
2026-04-26 08:09 0.37694 -166.99005 34855 ft 517 kts 43°
2026-04-26 08:10 0.42664 -166.93798 34857 ft 517 kts 43°
2026-04-26 08:10 0.47628 -166.88594 34858 ft 517 kts 43°
2026-04-26 08:11 0.52595 -166.83389 34863 ft 517 kts 43°
2026-04-26 08:11 0.57563 -166.78181 34863 ft 518 kts 43°
2026-04-26 08:12 0.62535 -166.72970 34857 ft 518 kts 43°
2026-04-26 08:12 0.67471 -166.67796 34859 ft 518 kts 43°
2026-04-26 08:13 0.72446 -166.62582 34864 ft 518 kts 44°
2026-04-26 08:13 0.77429 -166.57358 34865 ft 520 kts 44°
2026-04-26 08:14 0.82430 -166.52116 34865 ft 520 kts 44°
2026-04-26 08:14 0.87426 -166.46879 34862 ft 520 kts 44°
2026-04-26 08:15 0.92424 -166.41639 34861 ft 520 kts 44°
2026-04-26 08:15 0.97394 -166.36428 34865 ft 520 kts 44°
2026-04-26 08:16 1.02397 -166.31183 34866 ft 521 kts 44°
2026-04-26 08:16 1.07385 -166.25953 34864 ft 520 kts 44°
2026-04-26 08:17 1.12350 -166.20747 34864 ft 520 kts 44°
2026-04-26 08:17 1.17343 -166.15511 34866 ft 520 kts 44°
2026-04-26 08:18 1.22345 -166.10266 34868 ft 521 kts 44°
2026-04-26 08:18 1.27341 -166.05026 34869 ft 520 kts 44°
2026-04-26 08:19 1.32334 -165.99790 34866 ft 520 kts 44°
2026-04-26 08:19 1.37324 -165.94556 34868 ft 521 kts 44°
2026-04-26 08:20 1.42325 -165.89311 34865 ft 520 kts 44°
2026-04-26 08:20 1.47325 -165.84066 34863 ft 519 kts 44°
2026-04-26 08:21 1.52283 -165.78864 34863 ft 520 kts 44°
2026-04-26 08:21 1.57285 -165.73617 34866 ft 521 kts 44°
2026-04-26 08:22 1.62280 -165.68376 34867 ft 520 kts 44°
2026-04-26 08:22 1.67279 -165.63130 34868 ft 520 kts 44°
2026-04-26 08:23 1.72241 -165.57923 34867 ft 520 kts 44°
2026-04-26 08:23 1.77237 -165.52681 34867 ft 520 kts 44°
2026-04-26 08:24 1.82231 -165.47439 34865 ft 519 kts 44°
2026-04-26 08:24 1.87205 -165.42218 34869 ft 519 kts 44°
2026-04-26 08:25 1.92181 -165.36994 34867 ft 519 kts 44°
2026-04-26 08:25 1.97138 -165.31791 34869 ft 520 kts 44°
2026-04-26 08:26 2.02126 -165.26553 34872 ft 520 kts 44°
2026-04-26 08:26 2.07120 -165.21310 34872 ft 519 kts 44°
2026-04-26 08:27 2.12103 -165.16077 34873 ft 519 kts 44°
2026-04-26 08:27 2.17088 -165.10841 34871 ft 520 kts 44°
2026-04-26 08:28 2.22039 -165.05641 34873 ft 519 kts 44°
2026-04-26 08:28 2.27013 -165.00416 34870 ft 518 kts 44°
2026-04-26 08:29 2.31988 -164.95190 34874 ft 518 kts 44°
2026-04-26 08:29 2.36966 -164.89959 34875 ft 518 kts 44°
2026-04-26 08:30 2.41940 -164.84733 34876 ft 518 kts 44°
2026-04-26 08:30 2.46912 -164.79508 34879 ft 519 kts 44°
2026-04-26 08:31 2.51882 -164.74285 34879 ft 518 kts 44°
2026-04-26 08:31 2.56845 -164.69067 34879 ft 518 kts 44°
2026-04-26 08:32 2.61775 -164.63884 34878 ft 517 kts 44°
2026-04-26 08:32 2.66731 -164.58674 34880 ft 516 kts 44°
2026-04-26 08:33 2.71677 -164.53473 34878 ft 515 kts 44°
2026-04-26 08:33 2.76610 -164.48285 34880 ft 515 kts 44°
2026-04-26 08:34 2.81547 -164.43092 34879 ft 514 kts 44°
2026-04-26 08:34 2.86469 -164.37915 34879 ft 513 kts 44°
2026-04-26 08:35 2.91386 -164.32742 34882 ft 513 kts 44°
2026-04-26 08:35 2.96273 -164.27599 34883 ft 512 kts 44°
2026-04-26 08:36 3.01180 -164.22435 34885 ft 512 kts 44°
2026-04-26 08:36 3.06087 -164.17270 34883 ft 512 kts 45°
2026-04-26 08:37 3.10994 -164.12105 34885 ft 511 kts 45°
2026-04-26 08:37 3.15897 -164.06943 34884 ft 511 kts 45°
2026-04-26 08:38 3.20753 -164.01829 34881 ft 510 kts 45°
2026-04-26 08:38 3.25648 -163.96675 34885 ft 510 kts 45°
2026-04-26 08:39 3.30541 -163.91521 34891 ft 511 kts 45°
2026-04-26 08:39 3.35441 -163.86359 34885 ft 511 kts 45°
2026-04-26 08:40 3.40344 -163.81192 34882 ft 511 kts 45°
2026-04-26 08:40 3.45240 -163.76033 34885 ft 510 kts 45°
2026-04-26 08:41 3.50123 -163.70887 34886 ft 510 kts 45°
2026-04-26 08:41 3.54978 -163.65769 34888 ft 510 kts 45°
2026-04-26 08:42 3.59871 -163.60610 34889 ft 511 kts 45°
2026-04-26 08:42 3.64762 -163.55453 34889 ft 510 kts 45°
2026-04-26 08:43 3.69651 -163.50297 34892 ft 510 kts 45°
2026-04-26 08:43 3.74547 -163.45132 34891 ft 511 kts 45°
2026-04-26 08:44 3.79436 -163.39975 34886 ft 510 kts 45°
2026-04-26 08:44 3.84321 -163.34820 34886 ft 510 kts 45°
2026-04-26 08:45 3.89211 -163.29659 34893 ft 511 kts 45°
2026-04-26 08:45 3.94098 -163.24500 34896 ft 510 kts 45°
2026-04-26 08:46 3.98956 -163.19372 34895 ft 510 kts 45°
2026-04-26 08:46 4.03843 -163.14211 34897 ft 510 kts 45°
2026-04-26 08:47 4.08730 -163.09049 34893 ft 511 kts 45°
2026-04-26 08:47 4.13616 -163.03888 34895 ft 510 kts 45°
2026-04-26 08:48 4.18512 -162.98715 34895 ft 510 kts 45°
2026-04-26 08:48 4.22572 -162.94425 34890 ft 510 kts 45°
2026-04-26 08:49 4.27457 -162.89261 34894 ft 510 kts 45°
2026-04-26 08:49 4.32189 -162.83951 34887 ft 509 kts 46°
2026-04-26 08:50 4.36904 -162.78710 34887 ft 509 kts 47°
2026-04-26 08:50 4.41591 -162.73386 34889 ft 509 kts 47°
2026-04-26 08:51 4.48667 -162.65431 34894 ft 509 kts 47°
2026-04-26 08:52 4.53372 -162.60124 34891 ft 509 kts 47°
2026-04-26 08:52 4.58084 -162.54816 34891 ft 510 kts 47°
2026-04-26 08:53 4.62800 -162.49495 34893 ft 510 kts 47°
2026-04-26 08:53 4.67489 -162.44210 34894 ft 510 kts 47°
2026-04-26 08:54 4.72203 -162.38890 34897 ft 510 kts 47°
2026-04-26 08:54 4.76923 -162.33565 34897 ft 510 kts 47°
2026-04-26 08:55 4.81642 -162.28239 34897 ft 510 kts 47°
2026-04-26 08:55 4.86364 -162.22909 34897 ft 511 kts 47°
2026-04-26 08:56 4.91052 -162.17616 34898 ft 510 kts 47°
2026-04-26 08:56 4.95770 -162.12287 34898 ft 511 kts 47°
2026-04-26 08:57 5.00492 -162.06954 34899 ft 511 kts 47°
2026-04-26 08:57 5.05210 -162.01623 34900 ft 511 kts 47°
2026-04-26 08:58 5.09930 -161.96288 34899 ft 511 kts 47°
2026-04-26 08:58 5.14651 -161.90952 34902 ft 511 kts 47°
2026-04-26 08:59 5.19372 -161.85614 34902 ft 511 kts 47°
2026-04-26 08:59 5.24090 -161.80277 34900 ft 512 kts 47°
2026-04-26 09:00 5.28784 -161.74968 34897 ft 512 kts 47°
2026-04-26 09:00 5.33515 -161.69614 34900 ft 512 kts 47°
2026-04-26 09:01 5.38247 -161.64258 34904 ft 512 kts 47°
2026-04-26 09:01 5.42976 -161.58904 34903 ft 513 kts 47°
2026-04-26 09:02 5.47709 -161.53545 34901 ft 513 kts 47°
2026-04-26 09:02 5.52446 -161.48180 34901 ft 513 kts 47°
2026-04-26 09:03 5.57180 -161.42816 34901 ft 513 kts 47°
2026-04-26 09:03 5.61873 -161.37497 34901 ft 511 kts 47°
2026-04-26 09:04 5.66588 -161.32152 34904 ft 511 kts 47°
2026-04-26 09:04 5.71309 -161.26800 34902 ft 512 kts 47°
2026-04-26 09:05 5.76032 -161.21443 34904 ft 512 kts 47°
2026-04-26 09:05 5.80754 -161.16085 34907 ft 512 kts 47°
2026-04-26 09:06 5.85475 -161.10727 34904 ft 512 kts 47°
2026-04-26 09:06 5.90165 -161.05405 34907 ft 512 kts 47°
2026-04-26 09:07 5.94884 -161.00046 34906 ft 511 kts 47°
2026-04-26 09:07 5.99597 -160.94693 34907 ft 511 kts 47°
2026-04-26 09:08 6.04307 -160.89343 34909 ft 511 kts 47°
2026-04-26 09:08 6.09019 -160.83987 34906 ft 511 kts 47°
2026-04-26 09:09 6.13738 -160.78623 34909 ft 511 kts 47°
2026-04-26 09:09 6.18449 -160.73266 34909 ft 511 kts 47°
2026-04-26 09:10 6.23165 -160.67903 34906 ft 511 kts 47°
2026-04-26 09:10 6.27875 -160.62543 34904 ft 512 kts 47°
2026-04-26 09:11 6.32592 -160.57176 34908 ft 512 kts 47°
2026-04-26 09:11 6.37303 -160.51813 34911 ft 512 kts 47°
2026-04-26 09:12 6.41996 -160.46468 34904 ft 512 kts 47°
2026-04-26 09:12 6.46712 -160.41097 34908 ft 512 kts 47°
2026-04-26 09:13 6.51428 -160.35723 34908 ft 512 kts 47°
2026-04-26 09:13 6.56145 -160.30346 34911 ft 513 kts 47°
2026-04-26 09:14 6.60865 -160.24965 34907 ft 513 kts 47°
2026-04-26 09:14 6.65591 -160.19575 34911 ft 513 kts 47°
2026-04-26 09:15 6.70316 -160.14184 34913 ft 513 kts 47°
2026-04-26 09:15 6.75039 -160.08794 34909 ft 514 kts 47°
2026-04-26 09:16 6.79741 -160.03426 34910 ft 515 kts 47°
2026-04-26 09:16 6.84485 -159.98008 34910 ft 516 kts 47°
2026-04-26 09:17 6.89236 -159.92582 34909 ft 517 kts 46°
2026-04-26 09:17 6.93989 -159.87150 34913 ft 518 kts 46°
2026-04-26 09:18 6.98759 -159.81698 34913 ft 518 kts 46°
2026-04-26 09:18 7.03498 -159.76278 34914 ft 518 kts 46°
2026-04-26 09:19 7.08266 -159.70824 34916 ft 519 kts 46°
2026-04-26 09:19 7.13047 -159.65353 34909 ft 520 kts 46°
2026-04-26 09:20 7.17832 -159.59876 34910 ft 520 kts 46°
2026-04-26 09:20 7.22610 -159.54406 34913 ft 520 kts 46°
2026-04-26 09:21 7.27257 -159.48869 34908 ft 521 kts 48°
2026-04-26 09:21 7.31924 -159.43270 34910 ft 521 kts 48°
2026-04-26 09:22 7.36534 -159.37613 34914 ft 522 kts 48°
2026-04-26 09:22 7.41178 -159.31976 34916 ft 522 kts 47°
2026-04-26 09:23 7.45803 -159.26332 34915 ft 523 kts 48°
2026-04-26 09:23 7.50411 -159.20717 34918 ft 524 kts 47°
2026-04-26 09:24 7.55063 -159.15044 34914 ft 525 kts 48°
2026-04-26 09:24 7.59709 -159.09375 34917 ft 525 kts 47°
2026-04-26 09:25 7.64367 -159.03691 34918 ft 525 kts 47°
2026-04-26 09:25 7.69025 -158.98003 34914 ft 526 kts 47°
2026-04-26 09:26 7.73654 -158.92351 34914 ft 526 kts 47°
2026-04-26 09:26 7.78310 -158.86661 34918 ft 526 kts 47°
2026-04-26 09:27 7.82971 -158.80964 34917 ft 526 kts 47°
2026-04-26 09:27 7.87638 -158.75258 34917 ft 526 kts 47°
2026-04-26 09:28 7.92295 -158.69562 34909 ft 527 kts 47°
2026-04-26 09:28 7.96962 -158.63851 34900 ft 527 kts 47°
2026-04-26 09:29 8.01627 -158.58140 34904 ft 528 kts 47°
2026-04-26 09:29 8.06300 -158.52416 34906 ft 528 kts 47°
2026-04-26 09:30 8.10947 -158.46724 34919 ft 529 kts 47°
2026-04-26 09:30 8.15658 -158.40950 34905 ft 529 kts 47°
2026-04-26 09:31 8.20311 -158.35244 34905 ft 529 kts 47°
2026-04-26 09:31 8.24992 -158.29502 34904 ft 529 kts 47°
2026-04-26 09:32 8.29678 -158.23752 34911 ft 530 kts 47°
2026-04-26 09:32 8.34358 -158.18005 34915 ft 530 kts 47°
2026-04-26 09:33 8.39051 -158.12242 34916 ft 530 kts 47°
2026-04-26 09:33 8.43708 -158.06520 34913 ft 531 kts 47°
2026-04-26 09:34 8.48395 -158.00758 34913 ft 531 kts 47°
2026-04-26 09:34 8.53090 -157.94985 34914 ft 531 kts 47°
2026-04-26 09:35 8.56990 -157.90187 34915 ft 531 kts 47°
2026-04-26 09:35 8.61685 -157.84409 34919 ft 532 kts 47°
2026-04-26 09:36 8.66379 -157.78629 34922 ft 532 kts 47°
2026-04-26 09:36 8.71077 -157.72843 34920 ft 533 kts 47°
2026-04-26 09:37 8.75785 -157.67041 34917 ft 533 kts 47°
2026-04-26 09:37 8.80494 -157.61236 34918 ft 534 kts 47°
2026-04-26 09:38 8.85179 -157.55457 34920 ft 534 kts 47°
2026-04-26 09:38 8.89895 -157.49638 34920 ft 535 kts 47°
2026-04-26 09:39 8.94614 -157.43811 34921 ft 534 kts 47°
2026-04-26 09:39 8.99132 -157.37818 34920 ft 536 kts 49°
2026-04-26 09:40 9.03678 -157.31833 34922 ft 536 kts 50°
2026-04-26 09:40 9.08176 -157.25816 34920 ft 536 kts 49°
2026-04-26 09:41 9.12710 -157.19815 34922 ft 537 kts 49°
2026-04-26 09:41 9.17220 -157.13798 34924 ft 536 kts 49°
2026-04-26 09:42 9.21745 -157.07787 34924 ft 537 kts 49°
2026-04-26 09:42 9.26230 -157.01808 34924 ft 537 kts 49°
2026-04-26 09:43 9.30752 -156.95788 34922 ft 537 kts 49°
2026-04-26 09:43 9.35275 -156.89758 34924 ft 537 kts 49°
2026-04-26 09:44 9.39805 -156.83719 34924 ft 538 kts 49°
2026-04-26 09:44 9.44330 -156.77682 34925 ft 538 kts 49°
2026-04-26 09:45 9.48854 -156.71644 34925 ft 538 kts 49°
2026-04-26 09:45 9.53384 -156.65594 34924 ft 538 kts 49°
2026-04-26 09:46 9.57911 -156.59546 34925 ft 539 kts 49°
2026-04-26 09:46 9.62409 -156.53533 34926 ft 538 kts 49°
2026-04-26 09:47 9.66933 -156.47483 34926 ft 538 kts 49°
2026-04-26 09:47 9.71460 -156.41425 34925 ft 539 kts 49°
2026-04-26 09:48 9.75988 -156.35364 34925 ft 539 kts 49°
2026-04-26 09:48 9.80515 -156.29300 34921 ft 540 kts 49°
2026-04-26 09:49 9.85040 -156.23235 34923 ft 539 kts 49°
2026-04-26 09:49 9.89558 -156.17178 34924 ft 538 kts 49°
2026-04-26 09:50 9.94075 -156.11118 34923 ft 538 kts 49°
2026-04-26 09:50 9.98593 -156.05055 34929 ft 538 kts 49°
2026-04-26 09:51 10.03105 -155.98996 34926 ft 538 kts 49°
2026-04-26 09:51 10.07592 -155.92968 34928 ft 539 kts 49°
2026-04-26 09:52 10.12116 -155.86886 34929 ft 539 kts 49°
2026-04-26 09:52 10.18890 -155.77775 34929 ft 539 kts 49°
2026-04-26 09:53 10.23400 -155.71703 34931 ft 539 kts 49°
2026-04-26 09:53 10.27912 -155.65627 34926 ft 538 kts 49°
2026-04-26 09:54 10.32421 -155.59550 34928 ft 539 kts 49°
2026-04-26 09:54 10.36938 -155.53460 34928 ft 539 kts 49°
2026-04-26 09:55 10.41418 -155.47418 34929 ft 540 kts 49°
2026-04-26 09:55 10.45934 -155.41322 34934 ft 539 kts 49°
2026-04-26 09:56 10.50444 -155.35231 34936 ft 538 kts 49°
2026-04-26 09:56 10.54944 -155.29152 34932 ft 538 kts 49°
2026-04-26 09:57 10.59446 -155.23067 34930 ft 539 kts 49°
2026-04-26 09:57 10.63956 -155.16965 34932 ft 540 kts 49°
2026-04-26 09:58 10.68439 -155.10898 34939 ft 540 kts 49°
2026-04-26 09:58 10.72944 -155.04797 34928 ft 540 kts 49°
2026-04-26 09:59 10.77463 -154.98675 34928 ft 541 kts 49°
2026-04-26 09:59 10.81979 -154.92552 34932 ft 541 kts 49°
2026-04-26 10:00 10.86495 -154.86426 34930 ft 542 kts 49°
2026-04-26 10:00 10.91024 -154.80280 34929 ft 543 kts 49°
2026-04-26 10:01 10.95548 -154.74135 34935 ft 542 kts 49°
2026-04-26 10:01 11.00042 -154.68030 34933 ft 543 kts 49°
2026-04-26 10:02 11.04571 -154.61872 34931 ft 543 kts 49°
2026-04-26 10:02 11.09105 -154.55704 34936 ft 544 kts 49°
2026-04-26 10:03 11.13629 -154.49545 34931 ft 543 kts 49°
2026-04-26 10:03 11.18156 -154.43381 34933 ft 543 kts 49°
2026-04-26 10:04 11.22680 -154.37215 34939 ft 544 kts 49°
2026-04-26 10:04 11.27207 -154.31041 34940 ft 543 kts 49°
2026-04-26 10:05 11.31728 -154.24873 34936 ft 543 kts 49°
2026-04-26 10:05 11.36244 -154.18708 34942 ft 543 kts 49°
2026-04-26 10:06 11.40730 -154.12579 34940 ft 543 kts 49°
2026-04-26 10:06 11.45250 -154.06402 34938 ft 543 kts 49°
2026-04-26 10:07 11.49762 -154.00231 34942 ft 543 kts 49°
2026-04-26 10:07 11.54273 -153.94058 34943 ft 542 kts 49°
2026-04-26 10:08 11.58785 -153.87878 34941 ft 542 kts 49°
2026-04-26 10:08 11.63266 -153.81739 34942 ft 543 kts 49°
2026-04-26 10:09 11.67772 -153.75560 34939 ft 542 kts 49°
2026-04-26 10:09 11.72277 -153.69381 34942 ft 542 kts 49°
2026-04-26 10:10 11.76772 -153.63209 34939 ft 541 kts 50°
2026-04-26 10:10 11.81269 -153.57033 34944 ft 541 kts 50°
2026-04-26 10:11 11.85758 -153.50862 34945 ft 541 kts 50°
2026-04-26 10:11 11.90238 -153.44702 34947 ft 540 kts 50°
2026-04-26 10:12 11.94714 -153.38541 34944 ft 539 kts 50°
2026-04-26 10:12 11.99180 -153.32393 34945 ft 540 kts 50°
2026-04-26 10:13 12.03670 -153.26243 34948 ft 538 kts 46°
2026-04-26 10:13 12.08433 -153.20342 34947 ft 539 kts 47°
2026-04-26 10:14 12.13154 -153.14447 34945 ft 539 kts 46°
2026-04-26 10:14 12.17932 -153.08519 34946 ft 540 kts 47°
2026-04-26 10:15 12.22689 -153.02581 34947 ft 539 kts 47°
2026-04-26 10:15 12.27458 -152.96647 34946 ft 539 kts 47°
2026-04-26 10:16 12.32208 -152.90718 34947 ft 539 kts 47°
2026-04-26 10:16 12.36964 -152.84788 34947 ft 539 kts 47°
2026-04-26 10:17 12.41679 -152.78899 34948 ft 538 kts 47°
2026-04-26 10:17 12.46431 -152.72963 34949 ft 539 kts 47°
2026-04-26 10:18 12.51174 -152.67032 34950 ft 538 kts 47°
2026-04-26 10:18 12.55910 -152.61110 34948 ft 537 kts 47°
2026-04-26 10:19 12.60643 -152.55184 34950 ft 537 kts 47°
2026-04-26 10:19 12.65370 -152.49264 34952 ft 537 kts 47°
2026-04-26 10:20 12.69293 -152.44346 34951 ft 536 kts 47°
2026-04-26 10:20 12.74817 -152.37420 34952 ft 537 kts 47°
2026-04-26 10:21 12.79507 -152.31534 34946 ft 536 kts 47°
2026-04-26 10:21 12.84228 -152.25605 34951 ft 536 kts 47°
2026-04-26 10:22 12.88173 -152.20648 34951 ft 536 kts 47°
2026-04-26 10:22 12.93651 -152.13760 34953 ft 536 kts 47°
2026-04-26 10:23 12.97561 -152.08840 34954 ft 535 kts 47°
2026-04-26 10:23 13.02266 -152.02918 34954 ft 535 kts 47°
2026-04-26 10:24 13.06967 -151.96995 34949 ft 535 kts 47°
2026-04-26 10:24 13.11660 -151.91078 34955 ft 535 kts 47°
2026-04-26 10:25 13.16325 -151.85193 34957 ft 535 kts 47°
2026-04-26 10:25 13.21017 -151.79271 34957 ft 535 kts 47°
2026-04-26 10:26 13.25705 -151.73348 34959 ft 534 kts 47°
2026-04-26 10:26 13.30401 -151.67413 34954 ft 535 kts 47°
2026-04-26 10:27 13.35090 -151.61480 34953 ft 534 kts 47°
2026-04-26 10:27 13.39774 -151.55553 34960 ft 534 kts 47°
2026-04-26 10:28 13.44454 -151.49625 34956 ft 534 kts 47°
2026-04-26 10:28 13.49131 -151.43697 34958 ft 534 kts 47°
2026-04-26 10:29 13.53806 -151.37767 34959 ft 534 kts 47°
2026-04-26 10:29 13.58451 -151.31872 34959 ft 534 kts 47°
2026-04-26 10:30 13.63124 -151.25936 34958 ft 533 kts 48°
2026-04-26 10:30 13.67790 -151.20006 34960 ft 534 kts 48°
2026-04-26 10:31 13.72455 -151.14071 34947 ft 533 kts 48°
2026-04-26 10:31 13.77115 -151.08141 34954 ft 533 kts 48°
2026-04-26 10:32 13.81778 -151.02201 34956 ft 532 kts 48°
2026-04-26 10:32 13.86427 -150.96276 34957 ft 532 kts 48°
2026-04-26 10:33 13.91078 -150.90343 34956 ft 532 kts 48°
2026-04-26 10:33 13.95692 -150.84455 34966 ft 532 kts 48°
2026-04-26 10:34 14.00334 -150.78525 34964 ft 532 kts 48°
2026-04-26 10:34 14.04983 -150.72582 34963 ft 532 kts 48°
2026-04-26 10:35 14.09629 -150.66639 34963 ft 531 kts 48°
2026-04-26 10:35 14.14239 -150.60738 34964 ft 531 kts 48°
2026-04-26 10:36 14.18869 -150.54807 34969 ft 530 kts 48°
2026-04-26 10:36 14.23504 -150.48865 34967 ft 531 kts 48°
2026-04-26 10:37 14.28134 -150.42926 34964 ft 531 kts 48°
2026-04-26 10:37 14.32740 -150.37013 34973 ft 531 kts 48°
2026-04-26 10:38 14.37372 -150.31062 34970 ft 532 kts 48°
2026-04-26 10:38 14.42005 -150.25106 34966 ft 532 kts 48°
2026-04-26 10:39 14.46637 -150.19146 34969 ft 532 kts 49°
2026-04-26 10:39 14.51265 -150.13187 34973 ft 532 kts 49°
2026-04-26 10:40 14.55895 -150.07221 34970 ft 532 kts 49°
2026-04-26 10:40 14.60495 -150.01290 34967 ft 532 kts 49°
2026-04-26 10:41 14.65120 -149.95321 34968 ft 532 kts 49°
2026-04-26 10:41 14.69744 -149.89351 34969 ft 532 kts 49°
2026-04-26 10:42 14.74365 -149.83377 34969 ft 532 kts 49°
2026-04-26 10:42 14.78993 -149.77392 34965 ft 533 kts 49°
2026-04-26 10:43 14.83620 -149.71403 34970 ft 533 kts 49°
2026-04-26 10:43 14.88216 -149.65449 34969 ft 533 kts 49°
2026-04-26 10:44 14.92849 -149.59444 34969 ft 533 kts 49°
2026-04-26 10:44 14.97475 -149.53442 34971 ft 533 kts 49°
2026-04-26 10:45 15.02074 -149.47471 34971 ft 533 kts 49°
2026-04-26 10:45 15.06698 -149.41463 34972 ft 533 kts 49°
2026-04-26 10:46 15.11313 -149.35462 34969 ft 533 kts 49°
2026-04-26 10:46 15.16045 -149.29564 34967 ft 533 kts 49°
2026-04-26 10:47 15.20753 -149.23609 34975 ft 533 kts 47°
2026-04-26 10:47 15.25512 -149.17698 34974 ft 534 kts 49°
2026-04-26 10:48 15.30230 -149.11753 34974 ft 533 kts 48°
2026-04-26 10:48 15.34935 -149.05873 34973 ft 534 kts 48°
2026-04-26 10:49 15.39671 -148.99914 34955 ft 540 kts 47°
2026-04-26 10:49 15.44515 -148.93842 34966 ft 552 kts 47°
2026-04-26 10:50 15.48582 -148.88719 34973 ft 551 kts 47°
2026-04-26 10:50 15.54287 -148.81548 34977 ft 550 kts 47°
2026-04-26 10:51 15.61573 -148.72368 34978 ft 552 kts 47°
2026-04-26 10:52 15.66448 -148.66223 34979 ft 552 kts 47°
2026-04-26 10:52 15.71326 -148.60067 34981 ft 552 kts 47°
2026-04-26 10:53 15.76203 -148.53908 34977 ft 552 kts 47°
2026-04-26 10:53 15.81082 -148.47741 34975 ft 552 kts 47°
2026-04-26 10:54 15.88386 -148.38499 34983 ft 552 kts 47°
2026-04-26 10:54 15.93258 -148.32328 34987 ft 552 kts 47°
2026-04-26 10:55 15.98090 -148.26204 34984 ft 552 kts 47°
2026-04-26 10:55 16.02167 -148.21031 34983 ft 552 kts 47°
2026-04-26 10:56 16.07832 -148.13838 34980 ft 553 kts 47°
2026-04-26 10:56 16.12699 -148.07653 34993 ft 553 kts 47°
2026-04-26 10:57 16.17565 -148.01463 34986 ft 552 kts 47°
2026-04-26 10:57 16.22427 -147.95273 34990 ft 552 kts 47°
2026-04-26 10:58 16.27295 -147.89070 34994 ft 553 kts 47°
2026-04-26 10:58 16.32160 -147.82866 34991 ft 553 kts 47°
2026-04-26 10:59 16.36995 -147.76695 34982 ft 553 kts 47°
2026-04-26 10:59 16.41862 -147.70477 34983 ft 553 kts 47°
2026-04-26 11:00 16.46729 -147.64253 34989 ft 553 kts 47°
2026-04-26 11:00 16.51602 -147.58017 34989 ft 554 kts 47°
2026-04-26 11:01 16.56462 -147.51792 34995 ft 554 kts 47°
2026-04-26 11:01 16.61295 -147.45597 34986 ft 554 kts 47°
2026-04-26 11:02 16.66153 -147.39363 34990 ft 554 kts 47°
2026-04-26 11:02 16.71017 -147.33116 34995 ft 554 kts 47°
2026-04-26 11:03 16.75869 -147.26878 34995 ft 553 kts 47°
2026-04-26 11:03 16.80713 -147.20647 35001 ft 552 kts 47°
2026-04-26 11:04 16.85546 -147.14423 35003 ft 552 kts 47°
2026-04-26 11:04 16.90354 -147.08226 34999 ft 552 kts 47°
2026-04-26 11:05 16.95190 -147.01987 35000 ft 553 kts 47°
2026-04-26 11:05 17.00026 -146.95743 35001 ft 552 kts 47°
2026-04-26 11:06 17.04040 -146.90555 35001 ft 552 kts 47°
2026-04-26 11:06 17.09617 -146.83185 35009 ft 553 kts 51°
2026-04-26 11:07 17.14244 -146.76763 35003 ft 553 kts 49°
2026-04-26 11:07 17.18855 -146.70307 35007 ft 553 kts 50°
2026-04-26 11:08 17.23429 -146.63909 35002 ft 552 kts 50°
2026-04-26 11:08 17.28038 -146.57463 35006 ft 553 kts 50°
2026-04-26 11:09 17.32637 -146.51010 35011 ft 553 kts 50°
2026-04-26 11:09 17.37244 -146.44554 35009 ft 553 kts 50°
2026-04-26 11:10 17.41065 -146.39185 35009 ft 551 kts 50°
2026-04-26 11:10 17.45640 -146.32761 35011 ft 551 kts 50°
2026-04-26 11:11 17.50964 -146.25270 35013 ft 551 kts 50°
2026-04-26 11:11 17.55536 -146.18833 35012 ft 550 kts 50°
2026-04-26 11:12 17.59363 -146.13440 35012 ft 550 kts 50°
2026-04-26 11:12 17.63925 -146.07006 35009 ft 550 kts 50°
2026-04-26 11:13 17.68481 -146.00573 35015 ft 549 kts 50°
2026-04-26 11:13 17.73015 -145.94166 35013 ft 549 kts 50°
2026-04-26 11:14 17.77569 -145.87724 35014 ft 549 kts 50°
2026-04-26 11:14 17.82123 -145.81275 35016 ft 549 kts 50°
2026-04-26 11:15 17.86668 -145.74833 35015 ft 549 kts 50°
2026-04-26 11:15 17.91183 -145.68428 35015 ft 549 kts 50°
2026-04-26 11:16 17.95725 -145.61978 35017 ft 549 kts 50°
2026-04-26 11:16 18.00261 -145.55530 35020 ft 548 kts 50°
2026-04-26 11:17 18.04802 -145.49069 35020 ft 549 kts 50°
2026-04-26 11:17 18.09334 -145.42614 35021 ft 549 kts 50°
2026-04-26 11:18 18.13834 -145.36198 35020 ft 548 kts 50°
2026-04-26 11:18 18.18355 -145.29745 35017 ft 548 kts 50°
2026-04-26 11:19 18.22880 -145.23281 35027 ft 548 kts 50°
2026-04-26 11:19 18.27398 -145.16820 35025 ft 548 kts 50°
2026-04-26 11:20 18.31156 -145.11442 35025 ft 548 kts 50°
2026-04-26 11:20 18.36435 -145.03878 35029 ft 548 kts 50°
2026-04-26 11:21 18.40943 -144.97413 35026 ft 548 kts 50°
2026-04-26 11:21 18.45421 -144.90983 35027 ft 548 kts 50°
2026-04-26 11:22 18.49939 -144.84491 35026 ft 548 kts 50°
2026-04-26 11:22 18.54442 -144.78012 35029 ft 548 kts 50°
2026-04-26 11:23 18.58946 -144.71526 35027 ft 548 kts 50°
2026-04-26 11:23 18.63446 -144.65038 35026 ft 548 kts 50°
2026-04-26 11:24 18.67951 -144.58538 35029 ft 548 kts 50°
2026-04-26 11:24 18.72456 -144.52030 35030 ft 549 kts 50°
2026-04-26 11:25 18.76921 -144.45573 35030 ft 549 kts 50°
2026-04-26 11:25 18.81419 -144.39063 35031 ft 549 kts 51°
2026-04-26 11:26 18.85916 -144.32546 35032 ft 549 kts 51°
2026-04-26 11:26 18.90417 -144.26017 35035 ft 549 kts 51°
2026-04-26 11:27 18.94911 -144.19492 35035 ft 549 kts 51°
2026-04-26 11:27 18.99430 -144.12924 35158 ft 555 kts 51°
2026-04-26 11:28 19.01696 -144.09627 35418 ft 555 kts 51°
2026-04-26 11:28 19.03961 -144.06328 35652 ft 555 kts 51°
2026-04-26 11:28 19.06235 -144.03018 35897 ft 555 kts 51°
2026-04-26 11:28 19.08499 -143.99720 36128 ft 555 kts 51°
2026-04-26 11:29 19.10767 -143.96413 36367 ft 555 kts 51°
2026-04-26 11:29 19.13032 -143.93109 36598 ft 555 kts 51°
2026-04-26 11:29 19.15297 -143.89803 36828 ft 555 kts 51°
2026-04-26 11:29 19.17559 -143.86500 37049 ft 555 kts 51°
2026-04-26 11:30 19.19821 -143.83196 37285 ft 555 kts 51°
2026-04-26 11:30 19.21320 -143.81005 37416 ft 554 kts 51°
2026-04-26 11:30 19.24346 -143.76580 37713 ft 554 kts 51°
2026-04-26 11:30 19.26581 -143.73309 37928 ft 554 kts 51°
2026-04-26 11:31 19.28837 -143.70006 38143 ft 554 kts 51°
2026-04-26 11:31 19.31100 -143.66691 38358 ft 554 kts 51°
2026-04-26 11:31 19.33361 -143.63377 38561 ft 554 kts 51°
2026-04-26 11:31 19.35623 -143.60060 38759 ft 554 kts 51°
2026-04-26 11:32 19.37872 -143.56760 38939 ft 553 kts 51°
2026-04-26 11:32 19.40125 -143.53452 39023 ft 555 kts 51°
2026-04-26 11:32 19.44622 -143.46845 39021 ft 554 kts 51°
2026-04-26 11:33 19.49113 -143.40238 39021 ft 551 kts 51°
2026-04-26 11:33 19.53594 -143.33642 39018 ft 551 kts 51°
2026-04-26 11:34 19.58067 -143.27047 39022 ft 551 kts 51°
2026-04-26 11:34 19.62537 -143.20452 39025 ft 551 kts 51°
2026-04-26 11:35 19.67013 -143.13839 39026 ft 551 kts 51°
2026-04-26 11:35 19.70725 -143.08350 39034 ft 551 kts 51°
2026-04-26 11:36 19.75930 -143.00645 39042 ft 551 kts 51°
2026-04-26 11:36 19.80390 -142.94034 39046 ft 551 kts 51°
2026-04-26 11:37 19.84848 -142.87418 39045 ft 550 kts 51°
2026-04-26 11:37 19.89302 -142.80803 39044 ft 550 kts 51°
2026-04-26 11:38 19.93715 -142.74239 39045 ft 549 kts 51°
2026-04-26 11:38 19.98147 -142.67642 39046 ft 548 kts 51°
2026-04-26 11:39 20.02572 -142.61048 39045 ft 547 kts 51°
2026-04-26 11:39 20.06992 -142.54452 39048 ft 548 kts 51°
2026-04-26 11:40 20.11421 -142.47837 39052 ft 550 kts 51°
2026-04-26 11:40 20.15856 -142.41204 39047 ft 550 kts 51°
2026-04-26 11:42 20.33389 -142.14499 39050 ft 552 kts 52°
2026-04-26 11:43 20.37668 -142.07708 39052 ft 552 kts 53°
2026-04-26 11:43 20.41850 -142.00906 39052 ft 552 kts 53°
2026-04-26 11:44 20.46106 -141.94082 39050 ft 553 kts 53°
2026-04-26 11:44 20.50332 -141.87233 39053 ft 553 kts 53°
2026-04-26 11:45 20.54578 -141.80383 39053 ft 553 kts 53°
2026-04-26 11:45 20.58813 -141.73518 39057 ft 553 kts 53°
2026-04-26 11:46 20.63022 -141.66702 39055 ft 553 kts 53°
2026-04-26 11:46 20.67249 -141.59840 39054 ft 553 kts 53°
2026-04-26 11:47 20.71477 -141.52973 39055 ft 553 kts 53°
2026-04-26 11:47 20.75695 -141.46112 39058 ft 554 kts 53°
2026-04-26 11:48 20.79928 -141.39218 39056 ft 555 kts 53°
2026-04-26 11:48 20.84165 -141.32310 39060 ft 555 kts 53°
2026-04-26 11:49 20.88371 -141.25445 39060 ft 555 kts 53°
2026-04-26 11:49 20.92599 -141.18534 39058 ft 553 kts 53°
2026-04-26 11:50 20.96811 -141.11642 39062 ft 553 kts 53°
2026-04-26 11:50 21.01021 -141.04744 39057 ft 554 kts 53°
2026-04-26 11:51 21.05234 -140.97833 39049 ft 554 kts 53°
2026-04-26 11:51 21.09446 -140.90916 39054 ft 554 kts 53°
2026-04-26 11:52 21.12972 -140.85118 39061 ft 554 kts 53°
2026-04-26 11:52 21.17858 -140.77074 39054 ft 554 kts 53°
2026-04-26 11:53 21.22064 -140.70139 39058 ft 554 kts 53°
2026-04-26 11:54 21.28358 -140.59747 39062 ft 554 kts 53°
2026-04-26 11:54 21.32554 -140.52808 39066 ft 554 kts 53°
2026-04-26 11:55 21.36717 -140.45916 39061 ft 554 kts 53°
2026-04-26 11:55 21.40905 -140.38972 39073 ft 554 kts 53°
2026-04-26 11:56 21.45093 -140.32021 39061 ft 554 kts 54°
2026-04-26 11:56 21.49281 -140.25061 39065 ft 555 kts 54°
2026-04-26 11:57 21.53463 -140.18102 39065 ft 554 kts 54°
2026-04-26 11:57 21.57645 -140.11134 39063 ft 555 kts 54°
2026-04-26 11:58 21.61823 -140.04162 39068 ft 555 kts 54°
2026-04-26 11:58 21.66003 -139.97180 39069 ft 555 kts 54°
2026-04-26 11:59 21.69472 -139.91379 39066 ft 555 kts 54°
2026-04-26 11:59 21.73644 -139.84394 39071 ft 555 kts 54°
2026-04-26 12:00 21.77817 -139.77398 39067 ft 556 kts 54°
2026-04-26 12:00 21.81993 -139.70387 39068 ft 556 kts 54°
2026-04-26 12:01 21.86167 -139.63372 39072 ft 556 kts 54°
2026-04-26 12:01 21.90345 -139.56339 39152 ft 556 kts 54°
2026-04-26 12:02 21.94452 -139.49416 39054 ft 550 kts 54°
2026-04-26 12:02 21.98597 -139.42428 39066 ft 556 kts 54°
2026-04-26 12:03 22.02767 -139.35377 39072 ft 557 kts 54°
2026-04-26 12:03 22.06934 -139.28329 39076 ft 557 kts 54°
2026-04-26 12:04 22.11093 -139.21282 39076 ft 557 kts 54°
2026-04-26 12:04 22.15248 -139.14235 39076 ft 556 kts 54°
2026-04-26 12:05 22.19368 -139.07238 39077 ft 555 kts 54°
2026-04-26 12:05 22.23511 -139.00191 39076 ft 555 kts 54°
2026-04-26 12:06 22.27643 -138.93155 39078 ft 555 kts 54°
2026-04-26 12:06 22.31786 -138.86090 39078 ft 555 kts 54°
2026-04-26 12:07 22.35916 -138.79038 39077 ft 555 kts 54°
2026-04-26 12:07 22.40036 -138.71993 39074 ft 554 kts 54°
2026-04-26 12:08 22.44134 -138.64978 39081 ft 556 kts 54°
2026-04-26 12:08 22.48256 -138.57911 39081 ft 555 kts 55°
2026-04-26 12:09 22.52381 -138.50831 39082 ft 556 kts 55°
2026-04-26 12:09 22.56503 -138.43744 39082 ft 556 kts 55°
2026-04-26 12:10 22.60595 -138.36701 39080 ft 556 kts 55°
2026-04-26 12:10 22.64715 -138.29600 39079 ft 556 kts 55°
2026-04-26 12:11 22.68826 -138.22504 39084 ft 557 kts 55°
2026-04-26 12:11 22.72937 -138.15398 39082 ft 556 kts 55°
2026-04-26 12:12 22.77045 -138.08290 39085 ft 556 kts 55°
2026-04-26 12:12 22.81144 -138.01185 39088 ft 556 kts 55°
2026-04-26 12:13 22.85220 -137.94112 39090 ft 556 kts 55°
2026-04-26 12:13 22.89320 -137.86988 39090 ft 556 kts 55°
2026-04-26 12:14 22.93417 -137.79857 39094 ft 557 kts 55°
2026-04-26 12:14 22.97518 -137.72737 39090 ft 557 kts 55°
2026-04-26 12:15 23.01626 -137.65597 39088 ft 557 kts 55°
2026-04-26 12:15 23.05729 -137.58451 39091 ft 558 kts 55°
2026-04-26 12:16 23.09834 -137.51297 39091 ft 558 kts 55°
2026-04-26 12:16 23.13900 -137.44196 39092 ft 558 kts 55°
2026-04-26 12:17 23.17991 -137.37046 39091 ft 558 kts 56°
2026-04-26 12:17 23.22087 -137.29874 39093 ft 558 kts 56°
2026-04-26 12:18 23.26175 -137.22707 39098 ft 557 kts 56°
2026-04-26 12:18 23.30257 -137.15540 39091 ft 557 kts 56°
2026-04-26 12:19 23.34334 -137.08373 39094 ft 557 kts 56°
2026-04-26 12:19 23.38418 -137.01182 39098 ft 557 kts 56°
2026-04-26 12:20 23.42464 -136.94049 39093 ft 557 kts 56°
2026-04-26 12:20 23.46527 -136.86874 39092 ft 556 kts 56°
2026-04-26 12:21 23.50589 -136.79692 39096 ft 558 kts 56°
2026-04-26 12:21 23.54664 -136.72478 39098 ft 558 kts 56°
2026-04-26 12:22 23.58732 -136.65263 39100 ft 559 kts 56°
2026-04-26 12:22 23.62802 -136.58036 39098 ft 559 kts 56°
2026-04-26 12:23 23.66873 -136.50796 39100 ft 560 kts 56°
2026-04-26 12:23 23.70911 -136.43604 39102 ft 560 kts 56°
2026-04-26 12:24 23.74977 -136.36354 39099 ft 559 kts 56°
2026-04-26 12:24 23.79035 -136.29105 39106 ft 560 kts 56°
2026-04-26 12:25 23.85131 -136.18197 39105 ft 560 kts 56°
2026-04-26 12:25 23.89162 -136.10972 39107 ft 560 kts 56°
2026-04-26 12:26 23.93217 -136.03691 39104 ft 561 kts 56°
2026-04-26 12:26 23.97266 -135.96412 39102 ft 560 kts 56°
2026-04-26 12:27 24.01315 -135.89120 39106 ft 560 kts 56°
2026-04-26 12:27 24.05357 -135.81831 39107 ft 561 kts 56°
2026-04-26 12:28 24.09403 -135.74525 39109 ft 561 kts 56°
2026-04-26 12:28 24.13447 -135.67212 39107 ft 561 kts 56°
2026-04-26 12:29 24.17493 -135.59882 39110 ft 562 kts 56°
2026-04-26 12:30 24.23551 -135.48889 39105 ft 562 kts 56°
2026-04-26 12:30 24.27567 -135.41588 39116 ft 562 kts 56°
2026-04-26 12:31 24.33619 -135.30562 39105 ft 563 kts 57°
2026-04-26 12:31 24.37650 -135.23207 39120 ft 563 kts 57°
2026-04-26 12:32 24.41678 -135.15843 39122 ft 563 kts 57°
2026-04-26 12:33 24.47691 -135.04833 39108 ft 563 kts 57°
2026-04-26 12:33 24.51716 -134.97447 39110 ft 564 kts 57°
2026-04-26 12:34 24.55745 -134.90044 39110 ft 564 kts 57°
2026-04-26 12:34 24.59768 -134.82640 39116 ft 565 kts 57°
2026-04-26 12:35 24.63793 -134.75220 39112 ft 565 kts 57°
2026-04-26 12:35 24.67813 -134.67799 39109 ft 565 kts 57°
2026-04-26 12:36 24.71836 -134.60361 39109 ft 565 kts 57°
2026-04-26 12:36 24.75827 -134.52971 39111 ft 565 kts 57°
2026-04-26 12:37 24.79838 -134.45530 39107 ft 565 kts 57°
2026-04-26 12:37 24.83852 -134.38074 39114 ft 566 kts 57°
2026-04-26 12:38 24.87859 -134.30618 39110 ft 566 kts 57°
2026-04-26 12:38 24.91862 -134.23159 39111 ft 566 kts 57°
2026-04-26 12:39 24.95862 -134.15693 39107 ft 566 kts 57°
2026-04-26 12:39 24.99861 -134.08216 39112 ft 566 kts 57°
2026-04-26 12:40 25.03859 -134.00731 39114 ft 566 kts 57°
2026-04-26 12:40 25.07847 -133.93253 39112 ft 566 kts 57°
2026-04-26 12:41 25.11814 -133.85802 39108 ft 566 kts 57°
2026-04-26 12:41 25.15799 -133.78304 39111 ft 566 kts 57°
2026-04-26 12:42 25.20085 -133.71041 39113 ft 565 kts 53°
2026-04-26 12:42 25.24439 -133.63807 39112 ft 566 kts 53°
2026-04-26 12:43 25.28812 -133.56581 39114 ft 566 kts 53°
2026-04-26 12:43 25.33175 -133.49329 39113 ft 566 kts 53°
2026-04-26 12:44 25.37537 -133.42087 39110 ft 566 kts 53°
2026-04-26 12:44 25.41893 -133.34833 39112 ft 565 kts 53°
2026-04-26 12:45 25.46221 -133.27619 39113 ft 566 kts 53°
2026-04-26 12:45 25.50573 -133.20352 39113 ft 566 kts 53°
2026-04-26 12:46 25.54926 -133.13073 39115 ft 566 kts 53°
2026-04-26 12:46 25.59275 -133.05790 39114 ft 566 kts 53°
2026-04-26 12:47 25.63615 -132.98509 39113 ft 566 kts 53°
2026-04-26 12:47 25.67929 -132.91261 39116 ft 566 kts 53°
2026-04-26 12:48 25.72276 -132.83947 39108 ft 567 kts 53°
2026-04-26 12:48 25.75875 -132.77882 39111 ft 566 kts 53°
2026-04-26 12:49 25.80203 -132.70579 39113 ft 567 kts 53°
2026-04-26 12:49 25.84535 -132.63256 39114 ft 567 kts 53°
2026-04-26 12:50 25.88859 -132.55937 39112 ft 567 kts 53°
2026-04-26 12:50 25.93186 -132.48601 39112 ft 567 kts 53°
2026-04-26 12:51 25.97503 -132.41268 39114 ft 567 kts 53°
2026-04-26 12:51 26.01824 -132.33918 39114 ft 567 kts 53°
2026-04-26 12:52 26.06110 -132.26618 39109 ft 568 kts 53°
2026-04-26 12:52 26.10424 -132.19256 39112 ft 568 kts 53°
2026-04-26 12:53 26.14738 -132.11883 39109 ft 568 kts 53°
2026-04-26 12:53 26.19051 -132.04500 39101 ft 568 kts 53°
2026-04-26 12:54 26.23359 -131.97113 39108 ft 568 kts 53°
2026-04-26 12:54 26.27669 -131.89710 39112 ft 568 kts 53°
2026-04-26 12:55 26.31973 -131.82308 39109 ft 569 kts 53°
2026-04-26 12:55 26.36245 -131.74946 39107 ft 569 kts 53°
2026-04-26 12:56 26.40545 -131.67527 39107 ft 569 kts 53°
2026-04-26 12:56 26.44842 -131.60098 39109 ft 569 kts 53°
2026-04-26 12:57 26.49133 -131.52668 39108 ft 570 kts 53°
2026-04-26 12:57 26.53368 -131.45324 39107 ft 570 kts 53°
2026-04-26 12:58 26.59801 -131.34144 39106 ft 571 kts 53°
2026-04-26 12:58 26.64095 -131.26666 39107 ft 571 kts 54°
2026-04-26 12:59 26.68387 -131.19180 39109 ft 572 kts 54°
2026-04-26 12:59 26.72673 -131.11691 39111 ft 572 kts 54°
2026-04-26 13:00 26.76939 -131.04225 39110 ft 572 kts 54°
2026-04-26 13:00 26.81228 -130.96705 39111 ft 573 kts 54°
2026-04-26 13:01 26.85512 -130.89182 39114 ft 572 kts 54°
2026-04-26 13:01 26.89791 -130.81656 39105 ft 573 kts 54°
2026-04-26 13:02 26.94072 -130.74112 39110 ft 574 kts 54°
2026-04-26 13:02 26.98330 -130.66597 39111 ft 576 kts 54°
2026-04-26 13:03 27.02622 -130.59007 39111 ft 575 kts 54°
2026-04-26 13:03 27.06898 -130.51435 39101 ft 574 kts 54°
2026-04-26 13:04 27.11165 -130.43865 39100 ft 574 kts 54°
2026-04-26 13:04 27.15442 -130.36264 39108 ft 575 kts 54°
2026-04-26 13:05 27.19709 -130.28669 39232 ft 575 kts 54°
2026-04-26 13:05 27.21845 -130.24860 39415 ft 575 kts 54°
2026-04-26 13:05 27.23959 -130.21091 39559 ft 576 kts 54°
2026-04-26 13:06 27.26093 -130.17280 39706 ft 576 kts 54°
2026-04-26 13:06 27.28228 -130.13465 39865 ft 577 kts 54°
2026-04-26 13:06 27.30370 -130.09632 40013 ft 577 kts 54°
2026-04-26 13:06 27.32511 -130.05800 40160 ft 577 kts 54°
2026-04-26 13:07 27.34645 -130.01976 40304 ft 577 kts 54°
2026-04-26 13:07 27.36753 -129.98196 40442 ft 578 kts 54°
2026-04-26 13:07 27.38890 -129.94361 40588 ft 578 kts 54°
2026-04-26 13:07 27.41028 -129.90519 40742 ft 578 kts 54°
2026-04-26 13:08 27.43161 -129.86684 40910 ft 578 kts 54°
2026-04-26 13:08 27.45298 -129.82839 41041 ft 578 kts 54°
2026-04-26 13:08 27.49573 -129.75135 41087 ft 580 kts 54°
2026-04-26 13:09 27.53834 -129.67440 41092 ft 578 kts 54°
2026-04-26 13:09 27.58090 -129.59748 41093 ft 578 kts 54°
2026-04-26 13:10 27.62347 -129.52034 41096 ft 579 kts 54°
2026-04-26 13:10 27.66598 -129.44318 41094 ft 579 kts 54°
2026-04-26 13:11 27.70826 -129.36631 41099 ft 579 kts 54°
2026-04-26 13:11 27.75074 -129.28895 41109 ft 579 kts 54°
2026-04-26 13:12 27.79314 -129.21158 41111 ft 579 kts 54°
2026-04-26 13:12 27.83545 -129.13425 41109 ft 578 kts 54°
2026-04-26 13:13 27.87776 -129.05677 41106 ft 579 kts 54°
2026-04-26 13:13 27.92004 -128.97920 41105 ft 580 kts 54°
2026-04-26 13:14 27.96232 -128.90149 41105 ft 580 kts 54°
2026-04-26 13:14 28.00426 -128.82428 41105 ft 580 kts 54°
2026-04-26 13:15 28.04651 -128.74635 41104 ft 579 kts 54°
2026-04-26 13:15 28.08149 -128.68172 41105 ft 579 kts 54°
2026-04-26 13:16 28.13073 -128.59058 41106 ft 579 kts 54°
2026-04-26 13:16 28.17274 -128.51266 41109 ft 579 kts 54°
2026-04-26 13:17 28.23588 -128.39588 41109 ft 577 kts 50°
2026-04-26 13:18 28.30485 -128.28457 41106 ft 577 kts 50°
2026-04-26 13:19 28.37397 -128.17266 41107 ft 576 kts 50°
2026-04-26 13:19 28.41980 -128.09826 41106 ft 577 kts 50°
2026-04-26 13:20 28.46576 -128.02355 41104 ft 576 kts 50°
2026-04-26 13:20 28.51172 -127.94872 41096 ft 577 kts 50°
2026-04-26 13:21 28.55759 -127.87388 41096 ft 576 kts 50°
2026-04-26 13:21 28.60311 -127.79950 41102 ft 577 kts 51°
2026-04-26 13:22 28.64894 -127.72447 41102 ft 577 kts 51°
2026-04-26 13:22 28.69480 -127.64926 41100 ft 577 kts 51°
2026-04-26 13:23 28.74057 -127.57407 41107 ft 577 kts 51°
2026-04-26 13:23 28.78627 -127.49885 41097 ft 577 kts 51°
2026-04-26 13:24 28.83195 -127.42356 41102 ft 577 kts 51°
2026-04-26 13:24 28.87761 -127.34812 41102 ft 578 kts 51°
2026-04-26 13:25 28.92291 -127.27316 41101 ft 577 kts 51°
2026-04-26 13:25 28.96847 -127.19765 41099 ft 577 kts 51°
2026-04-26 13:26 29.01398 -127.12208 41098 ft 577 kts 51°
2026-04-26 13:26 29.05949 -127.04636 41101 ft 577 kts 51°
2026-04-26 13:27 29.10491 -126.97065 41096 ft 577 kts 51°
2026-04-26 13:27 29.15036 -126.89477 41101 ft 577 kts 51°
2026-04-26 13:28 29.19574 -126.81885 41101 ft 577 kts 51°
2026-04-26 13:28 29.24073 -126.74347 41099 ft 577 kts 51°
2026-04-26 13:29 29.28602 -126.66743 41099 ft 578 kts 51°
2026-04-26 13:29 29.33123 -126.59138 41098 ft 577 kts 51°
2026-04-26 13:30 29.37646 -126.51516 41091 ft 577 kts 51°
2026-04-26 13:30 29.42153 -126.43907 41088 ft 576 kts 51°
2026-04-26 13:31 29.46635 -126.36329 41091 ft 576 kts 51°
2026-04-26 13:31 29.51127 -126.28715 41094 ft 576 kts 51°
2026-04-26 13:32 29.55624 -126.21082 41092 ft 576 kts 52°
2026-04-26 13:32 29.60114 -126.13445 41095 ft 576 kts 52°
2026-04-26 13:33 29.64599 -126.05803 41100 ft 576 kts 52°
2026-04-26 13:33 29.69046 -125.98212 41092 ft 576 kts 52°
2026-04-26 13:34 29.73522 -125.90556 41097 ft 576 kts 52°
2026-04-26 13:34 29.77990 -125.82901 41098 ft 575 kts 52°
2026-04-26 13:35 29.82452 -125.75241 41090 ft 576 kts 52°
2026-04-26 13:35 29.86914 -125.67566 41096 ft 576 kts 52°
2026-04-26 13:36 29.90618 -125.61185 41099 ft 576 kts 52°
2026-04-26 13:36 29.95792 -125.52253 41087 ft 576 kts 52°
2026-04-26 13:37 29.99491 -125.45855 41093 ft 574 kts 52°
2026-04-26 13:37 30.03924 -125.38177 41091 ft 575 kts 52°
2026-04-26 13:38 30.08350 -125.30494 41092 ft 575 kts 52°
2026-04-26 13:38 30.12771 -125.22806 41088 ft 575 kts 52°
2026-04-26 13:39 30.17190 -125.15105 41093 ft 575 kts 52°
2026-04-26 13:39 30.21603 -125.07401 41091 ft 575 kts 52°
2026-04-26 13:40 30.26018 -124.99679 41088 ft 575 kts 52°
2026-04-26 13:40 30.30423 -124.91960 41089 ft 575 kts 53°
2026-04-26 13:41 30.34831 -124.84221 41086 ft 575 kts 53°
2026-04-26 13:41 30.39196 -124.76540 41087 ft 574 kts 53°
2026-04-26 13:42 30.43576 -124.68821 41085 ft 573 kts 53°
2026-04-26 13:42 30.47949 -124.61097 41086 ft 573 kts 53°
2026-04-26 13:43 30.52308 -124.53383 41080 ft 572 kts 53°
2026-04-26 13:43 30.56568 -124.45832 41081 ft 571 kts 53°
2026-04-26 13:44 30.60918 -124.38105 41083 ft 571 kts 53°
2026-04-26 13:44 30.65263 -124.30372 41080 ft 571 kts 53°
2026-04-26 13:45 30.69595 -124.22647 41083 ft 571 kts 53°
2026-04-26 13:45 30.73913 -124.14932 41080 ft 572 kts 53°
2026-04-26 13:46 30.78421 -124.07342 41085 ft 568 kts 48°
2026-04-26 13:46 30.83285 -124.00080 41072 ft 569 kts 48°
2026-04-26 13:47 30.88119 -123.92777 41078 ft 569 kts 48°
2026-04-26 13:47 30.92885 -123.85602 41066 ft 567 kts 48°
2026-04-26 13:48 30.97764 -123.78224 41069 ft 566 kts 48°
2026-04-26 13:48 31.02539 -123.71000 41076 ft 566 kts 48°
2026-04-26 13:49 31.07345 -123.63710 41073 ft 566 kts 48°
2026-04-26 13:49 31.11978 -123.56269 41097 ft 569 kts 60°
2026-04-26 13:49 31.13634 -123.52045 41100 ft 573 kts 71°
2026-04-26 13:50 31.14701 -123.47555 41082 ft 574 kts 76°
2026-04-26 13:50 31.16572 -123.38475 41067 ft 576 kts 77°
2026-04-26 13:51 31.18428 -123.29384 41065 ft 576 kts 77°
2026-04-26 13:51 31.20290 -123.20284 41065 ft 576 kts 77°
2026-04-26 13:52 31.22137 -123.11178 41067 ft 576 kts 77°
2026-04-26 13:52 31.23972 -123.02131 41067 ft 575 kts 77°
2026-04-26 13:53 31.25807 -122.93021 41066 ft 575 kts 77°
2026-04-26 13:53 31.27636 -122.83925 41062 ft 575 kts 77°
2026-04-26 13:54 31.29445 -122.74883 41058 ft 575 kts 77°
2026-04-26 13:54 31.31263 -122.65765 41055 ft 575 kts 77°
2026-04-26 13:55 31.33686 -122.53557 41054 ft 576 kts 77°
2026-04-26 13:56 31.36681 -122.38371 41054 ft 576 kts 77°
2026-04-26 13:56 31.38477 -122.29216 41058 ft 577 kts 77°
2026-04-26 13:57 31.40268 -122.20054 41051 ft 577 kts 77°
2026-04-26 13:57 31.42052 -122.10887 41051 ft 577 kts 77°
2026-04-26 13:58 31.43819 -122.01777 41051 ft 577 kts 77°
2026-04-26 13:58 31.45590 -121.92601 41049 ft 577 kts 77°
2026-04-26 13:59 31.47354 -121.83429 41046 ft 576 kts 77°
2026-04-26 13:59 31.49109 -121.74265 41043 ft 576 kts 78°
2026-04-26 14:00 31.52602 -121.55914 41043 ft 578 kts 78°
2026-04-26 14:01 31.54342 -121.46713 41042 ft 578 kts 78°
2026-04-26 14:01 31.56292 -121.37648 41072 ft 576 kts 66°
2026-04-26 14:02 31.59317 -121.28950 41042 ft 576 kts 66°
2026-04-26 14:02 31.62345 -121.20223 41043 ft 576 kts 66°
2026-04-26 14:03 31.65345 -121.11525 41029 ft 574 kts 66°
2026-04-26 14:03 31.68343 -121.02849 41027 ft 573 kts 66°
2026-04-26 14:04 31.71326 -120.94158 41023 ft 574 kts 66°
2026-04-26 14:04 31.74312 -120.85460 41024 ft 573 kts 66°
2026-04-26 14:05 31.77281 -120.76773 41026 ft 573 kts 66°
2026-04-26 14:05 31.80232 -120.68129 41024 ft 574 kts 66°
2026-04-26 14:06 31.83201 -120.59400 41028 ft 575 kts 66°
2026-04-26 14:06 31.86164 -120.50671 41028 ft 574 kts 67°
2026-04-26 14:07 31.89119 -120.41941 41028 ft 574 kts 67°
2026-04-26 14:07 31.92068 -120.33204 41027 ft 574 kts 67°
2026-04-26 14:08 31.95807 -120.25011 41064 ft 565 kts 46°
2026-04-26 14:08 31.98390 -120.21570 40835 ft 553 kts 42°
2026-04-26 14:08 32.01032 -120.18238 39747 ft 557 kts 41°
2026-04-26 14:08 32.03681 -120.14922 39367 ft 560 kts 41°
2026-04-26 14:09 32.06322 -120.11596 38722 ft 566 kts 41°
2026-04-26 14:09 32.09003 -120.08190 37983 ft 567 kts 41°
2026-04-26 14:09 32.11687 -120.04784 37305 ft 566 kts 41°
2026-04-26 14:09 32.14375 -120.01390 36644 ft 566 kts 41°
2026-04-26 14:10 32.17063 -119.97994 35984 ft 566 kts 41°
2026-04-26 14:10 32.19743 -119.94591 35329 ft 566 kts 41°
2026-04-26 14:10 32.22422 -119.91183 34675 ft 566 kts 41°
2026-04-26 14:10 32.25102 -119.87779 34025 ft 566 kts 41°
2026-04-26 14:11 32.30451 -119.80975 32676 ft 563 kts 41°
2026-04-26 14:11 32.33109 -119.77585 32034 ft 561 kts 41°
2026-04-26 14:11 32.35759 -119.74206 31404 ft 558 kts 41°
2026-04-26 14:12 32.38393 -119.70845 30763 ft 556 kts 41°
2026-04-26 14:12 32.40989 -119.67528 30146 ft 554 kts 41°
2026-04-26 14:12 32.43595 -119.64194 29469 ft 550 kts 41°
2026-04-26 14:12 32.46178 -119.60886 28853 ft 544 kts 41°
2026-04-26 14:13 32.51269 -119.54362 27630 ft 533 kts 42°
2026-04-26 14:13 32.53772 -119.51150 27062 ft 527 kts 42°
2026-04-26 14:13 32.56245 -119.47972 26467 ft 521 kts 42°
2026-04-26 14:14 32.58693 -119.44824 25897 ft 515 kts 42°
2026-04-26 14:14 32.61109 -119.41715 25333 ft 509 kts 42°
2026-04-26 14:14 32.63494 -119.38643 24772 ft 503 kts 43°
2026-04-26 14:14 32.65852 -119.35604 24223 ft 497 kts 43°
2026-04-26 14:15 32.68154 -119.32630 23672 ft 476 kts 43°
2026-04-26 14:15 32.70317 -119.29823 23107 ft 442 kts 43°
2026-04-26 14:15 32.72334 -119.27217 22627 ft 416 kts 42°
2026-04-26 14:15 32.74271 -119.24726 22211 ft 406 kts 42°
2026-04-26 14:16 32.76156 -119.22298 21770 ft 403 kts 42°
2026-04-26 14:16 32.78039 -119.19856 21329 ft 399 kts 43°
2026-04-26 14:16 32.79905 -119.17433 20903 ft 395 kts 43°
2026-04-26 14:16 32.81754 -119.15036 20491 ft 392 kts 43°
2026-04-26 14:17 32.83587 -119.12660 20062 ft 388 kts 43°
2026-04-26 14:17 32.85403 -119.10304 19643 ft 384 kts 43°
2026-04-26 14:17 32.87196 -119.07973 19233 ft 381 kts 43°
2026-04-26 14:17 32.88978 -119.05656 18827 ft 377 kts 43°
2026-04-26 14:18 32.90724 -119.03381 18417 ft 367 kts 43°
2026-04-26 14:18 32.92439 -119.01151 17992 ft 365 kts 43°
2026-04-26 14:18 32.94155 -118.98921 17375 ft 363 kts 43°
2026-04-26 14:18 32.95836 -118.96727 16774 ft 354 kts 43°
2026-04-26 14:19 32.97474 -118.94585 16173 ft 346 kts 42°
2026-04-26 14:19 32.99065 -118.92513 15590 ft 340 kts 42°
2026-04-26 14:19 33.00653 -118.90444 14886 ft 338 kts 43°
2026-04-26 14:19 33.02272 -118.88333 14491 ft 338 kts 43°
2026-04-26 14:20 33.03855 -118.86257 13882 ft 343 kts 43°
2026-04-26 14:20 33.05462 -118.84160 13435 ft 339 kts 43°
2026-04-26 14:20 33.07043 -118.82088 12949 ft 336 kts 43°
2026-04-26 14:20 33.08609 -118.80038 12473 ft 333 kts 43°
2026-04-26 14:21 33.10159 -118.78008 12044 ft 328 kts 43°
2026-04-26 14:21 33.11667 -118.76028 12004 ft 320 kts 43°
2026-04-26 14:21 33.13181 -118.74049 12008 ft 325 kts 43°
2026-04-26 14:21 33.14711 -118.72043 12010 ft 328 kts 43°
2026-04-26 14:22 33.16251 -118.70019 12006 ft 329 kts 43°
2026-04-26 14:22 33.17770 -118.68022 12003 ft 329 kts 43°
2026-04-26 14:22 33.19289 -118.66023 11893 ft 320 kts 43°
2026-04-26 14:22 33.20785 -118.64056 11894 ft 322 kts 43°
2026-04-26 14:23 33.22306 -118.62061 11902 ft 327 kts 43°
2026-04-26 14:23 33.23842 -118.60039 11809 ft 331 kts 44°
2026-04-26 14:23 33.25381 -118.58006 11416 ft 320 kts 44°
2026-04-26 14:23 33.26840 -118.56075 10936 ft 308 kts 44°
2026-04-26 14:24 33.28281 -118.54182 10450 ft 311 kts 44°
2026-04-26 14:24 33.29666 -118.52350 9987 ft 288 kts 44°
2026-04-26 14:24 33.30557 -118.51175 9311 ft 288 kts 44°
2026-04-26 14:24 33.31891 -118.49417 8396 ft 282 kts 44°
2026-04-26 14:25 33.33621 -118.47132 7260 ft 276 kts 44°
2026-04-26 14:25 33.34880 -118.45464 7006 ft 264 kts 44°
2026-04-26 14:25 33.35714 -118.44365 7024 ft 278 kts 44°
2026-04-26 14:25 33.36874 -118.42497 6993 ft 282 kts 67°
2026-04-26 14:26 33.37180 -118.39398 7022 ft 287 kts 99°
2026-04-26 14:26 33.36958 -118.37846 7011 ft 286 kts 99°
2026-04-26 14:26 33.36659 -118.35513 7018 ft 283 kts 98°
2026-04-26 14:26 33.36358 -118.33178 7021 ft 285 kts 98°
2026-04-26 14:27 33.36051 -118.30830 7017 ft 286 kts 99°
2026-04-26 14:27 33.35742 -118.28481 7013 ft 284 kts 99°
2026-04-26 14:27 33.35434 -118.26141 7008 ft 284 kts 99°
2026-04-26 14:27 33.35128 -118.23804 7006 ft 284 kts 99°
2026-04-26 14:28 33.34820 -118.21463 7009 ft 285 kts 99°
2026-04-26 14:28 33.34511 -118.19125 7004 ft 285 kts 99°
2026-04-26 14:28 33.34233 -118.16786 7004 ft 283 kts 92°
2026-04-26 14:28 33.34710 -118.14553 7003 ft 280 kts 53°
2026-04-26 14:29 33.36099 -118.12980 7000 ft 274 kts 26°
2026-04-26 14:29 33.37803 -118.12091 7002 ft 270 kts 16°
2026-04-26 14:29 33.39490 -118.11087 7005 ft 272 kts 26°
2026-04-26 14:29 33.41153 -118.09999 6996 ft 272 kts 23°
2026-04-26 14:30 33.42924 -118.09335 6996 ft 265 kts
2026-04-26 14:30 33.44759 -118.09088 7001 ft 266 kts
2026-04-26 14:30 33.46594 -118.08741 6995 ft 267 kts
2026-04-26 14:30 33.48408 -118.08251 6994 ft 268 kts
2026-04-26 14:31 33.50218 -118.07747 7092 ft 262 kts
2026-04-26 14:31 33.51996 -118.07288 7449 ft 265 kts
2026-04-26 14:31 33.53814 -118.06831 7870 ft 268 kts
2026-04-26 14:31 33.55652 -118.06358 8296 ft 273 kts
2026-04-26 14:32 33.59872 -118.05265 9252 ft 276 kts
2026-04-26 14:32 33.67393 -118.03321 10820 ft 284 kts
2026-04-26 14:32 33.70883 -118.02695 11521 ft 278 kts 343°
2026-04-26 14:32 33.72687 -118.03429 11947 ft 277 kts 335°
2026-04-26 14:33 33.74584 -118.04080 11955 ft 288 kts 350°
2026-04-26 14:33 33.76591 -118.03869 11967 ft 293 kts 10°
2026-04-26 14:33 33.78446 -118.02767 11969 ft 306 kts 34°
2026-04-26 14:33 33.79874 -118.00798 11980 ft 321 kts 59°
2026-04-26 14:34 33.80772 -117.98329 11971 ft 324 kts 66°
2026-04-26 14:34 33.81598 -117.95802 12003 ft 325 kts 67°
2026-04-26 14:34 33.82426 -117.93268 11995 ft 325 kts 66°
2026-04-26 14:34 33.83277 -117.90745 12000 ft 325 kts 66°
2026-04-26 14:35 33.84131 -117.88228 11996 ft 325 kts 66°
2026-04-26 14:35 33.87199 -117.79046 11989 ft 326 kts 66°
2026-04-26 14:35 33.90591 -117.68884 12008 ft 326 kts 66°
2026-04-26 14:35 33.92110 -117.65184 11991 ft 321 kts 42°
2026-04-26 14:36 33.93866 -117.63607 12013 ft 313 kts 19°
2026-04-26 14:36 33.95925 -117.62945 11946 ft 292 kts 355°
2026-04-26 14:36 33.97874 -117.63194 12009 ft 282 kts 336°
2026-04-26 14:36 33.99555 -117.64167 12015 ft 256 kts 319°
2026-04-26 14:37 34.00787 -117.65587 12007 ft 233 kts 303°
2026-04-26 14:37 34.01553 -117.67203 11781 ft 211 kts 288°
2026-04-26 14:37 34.01955 -117.68834 11527 ft 199 kts 283°
2026-04-26 14:37 34.02150 -117.70485 11248 ft 201 kts 265°
2026-04-26 14:38 34.01968 -117.72118 11015 ft 195 kts 263°
2026-04-26 14:38 34.01822 -117.73729 10759 ft 186 kts 264°
2026-04-26 14:38 34.01680 -117.75245 10515 ft 179 kts 263°
2026-04-26 14:38 34.01535 -117.76737 10284 ft 180 kts 263°
2026-04-26 14:39 34.01390 -117.78228 10050 ft 178 kts 263°
2026-04-26 14:39 34.01248 -117.79685 9808 ft 177 kts 263°
2026-04-26 14:39 34.01105 -117.81157 9564 ft 176 kts 263°
2026-04-26 14:39 34.00963 -117.82616 9338 ft 174 kts 263°
2026-04-26 14:40 34.00821 -117.84070 9102 ft 175 kts 263°
2026-04-26 14:40 34.00679 -117.85526 8871 ft 175 kts 263°
2026-04-26 14:40 34.00536 -117.86978 8640 ft 175 kts 264°
2026-04-26 14:40 34.00394 -117.88435 8403 ft 175 kts 264°
2026-04-26 14:41 34.00251 -117.89888 8176 ft 174 kts 264°
2026-04-26 14:41 34.00112 -117.91333 7977 ft 171 kts 264°
2026-04-26 14:41 34.00040 -117.92757 7903 ft 173 kts 267°
2026-04-26 14:41 33.99930 -117.94199 7685 ft 174 kts 264°
2026-04-26 14:42 33.99782 -117.95664 7449 ft 174 kts 264°
2026-04-26 14:42 33.99635 -117.97094 7216 ft 174 kts 264°
2026-04-26 14:42 33.99488 -117.98518 6991 ft 167 kts 264°
2026-04-26 14:42 33.99346 -117.99905 6776 ft 170 kts 264°
2026-04-26 14:43 33.99203 -118.01281 6545 ft 153 kts 264°
2026-04-26 14:43 33.99077 -118.02497 6341 ft 142 kts 264°
2026-04-26 14:43 33.98957 -118.03673 6150 ft 141 kts 264°
2026-04-26 14:43 33.98836 -118.04844 5964 ft 140 kts 264°
2026-04-26 14:44 33.98718 -118.05996 5767 ft 140 kts 264°
2026-04-26 14:44 33.98598 -118.07159 5578 ft 139 kts 264°
2026-04-26 14:44 33.98479 -118.08322 5391 ft 140 kts 264°
2026-04-26 14:44 33.98359 -118.09493 5202 ft 141 kts 264°
2026-04-26 14:45 33.98239 -118.10657 5016 ft 142 kts 264°
2026-04-26 14:45 33.98157 -118.11458 4895 ft 142 kts 264°
2026-04-26 14:45 33.97996 -118.13026 4627 ft 143 kts 264°
2026-04-26 14:45 33.97874 -118.14217 4433 ft 143 kts 264°
2026-04-26 14:46 33.97752 -118.15407 4242 ft 143 kts 264°
2026-04-26 14:46 33.97630 -118.16601 4044 ft 144 kts 264°
2026-04-26 14:46 33.97507 -118.17795 3849 ft 144 kts 264°
2026-04-26 14:46 33.97384 -118.18996 3655 ft 145 kts 264°
2026-04-26 14:47 33.97260 -118.20197 3465 ft 144 kts 264°
2026-04-26 14:47 33.97139 -118.21380 3273 ft 144 kts 264°
2026-04-26 14:47 33.97015 -118.22587 3077 ft 144 kts 264°
2026-04-26 14:47 33.96894 -118.23781 2873 ft 143 kts 264°
2026-04-26 14:48 33.96769 -118.24976 2683 ft 144 kts 264°
2026-04-26 14:48 33.96647 -118.26174 2492 ft 144 kts 264°
2026-04-26 14:48 33.96524 -118.27382 2286 ft 145 kts 263°
2026-04-26 14:48 33.96401 -118.28570 2102 ft 145 kts 264°
2026-04-26 14:49 33.96279 -118.29766 1899 ft 143 kts 263°
2026-04-26 14:49 33.96155 -118.30958 1702 ft 144 kts 264°
2026-04-26 14:49 33.96033 -118.32159 1504 ft 144 kts 263°
2026-04-26 14:49 33.95910 -118.33354 1308 ft 144 kts 263°
2026-04-26 14:50 33.95788 -118.34531 1105 ft 143 kts 263°
2026-04-26 14:50 33.95669 -118.35743 906 ft 145 kts 263°
2026-04-26 14:50 33.95543 -118.36929 709 ft 143 kts 264°
2026-04-26 14:50 33.95426 -118.38123 509 ft 142 kts 264°
2026-04-26 14:51 33.95302 -118.39275 318 ft 138 kts 266°
2026-04-26 14:51 33.95178 -118.40459 121 ft 143 kts 266°
2026-04-26 14:51 33.95090 -118.41391 109 ft 75 kts 263°
2026-04-26 14:51 33.95053 -118.41737 111 ft 17 kts 262°
2026-04-26 14:52 33.95040 -118.41865 112 ft 21 kts 263°
2026-04-26 14:52 33.95019 -118.42036 109 ft 20 kts 253°
2026-04-26 14:52 33.94939 -118.42194 110 ft 23 kts 230°
2026-04-26 14:52 33.94811 -118.42280 110 ft 21 kts 182°
2026-04-26 14:53 33.94681 -118.42240 107 ft 13 kts 124°
2026-04-26 14:53 33.94680 -118.42170 104 ft 8 kts 76°
2026-04-26 14:53 33.94698 -118.42076 105 ft 18 kts 82°
2026-04-26 14:53 33.94712 -118.41923 103 ft 19 kts 84°
2026-04-26 14:54 33.94729 -118.41765 106 ft 19 kts 81°
2026-04-26 14:54 33.94736 -118.41715 103 ft 3 kts 81°
2026-04-26 14:54 33.94743 -118.41636 104 ft 15 kts 84°
2026-04-26 14:54 33.94688 -118.41546 103 ft 11 kts 146°
2026-04-26 14:55 33.94672 -118.41497 103 ft 10 kts 90°
2026-04-26 14:55 33.94670 -118.41396 102 ft 10 kts 117°
2026-04-26 14:55 33.94654 -118.41381 102 ft 4 kts 164°
2026-04-26 14:55 33.94576 -118.41367 102 ft 14 kts 172°
2026-04-26 14:56 33.94507 -118.41329 102 ft 9 kts 121°
2026-04-26 14:56 33.94472 -118.41272 101 ft 8 kts 133°
2026-04-26 14:56 33.94463 -118.41248 103 ft 3 kts 109°
2026-04-26 14:56 33.94456 -118.41202 101 ft 7 kts 92°
2026-04-26 14:57 33.94460 -118.41144 103 ft 7 kts 83°
2026-04-26 14:57 33.94460 -118.41139 103 ft 0 kts 84°